Time,TemperatureF,DewpointF,PressureIn,WindDirection,WindDirectionDegrees,WindSpeedMPH,WindSpeedGustMPH,Humidity,HourlyPrecipIn,Conditions,Clouds,dailyrainin,SoftwareType,DateUTC
2013-06-30 00:00:00,75.9,72.8,29.64,SSW,211,0.0,11.0,90,0.00,,---,0.06,VWS V13.01,2013-06-30 04:00:00,
2013-06-30 00:01:00,75.9,72.8,29.64,SSW,207,0.0,11.0,90,0.00,,---,0.06,VWS V13.01,2013-06-30 04:01:00,
2013-06-30 00:06:00,76.0,72.9,29.65,WSW,240,0.0,9.0,90,0.00,,---,0.00,VWS V13.01,2013-06-30 04:06:00,
2013-06-30 00:07:00,76.0,72.9,29.65,SW,225,0.0,9.0,90,0.00,,---,0.00,VWS V13.01,2013-06-30 04:07:00,
2013-06-30 00:11:00,75.9,72.8,29.65,SW,223,2.0,9.0,90,0.00,,---,0.00,VWS V13.01,2013-06-30 04:11:00,
2013-06-30 00:12:00,75.9,72.8,29.65,SW,215,0.0,9.0,90,0.00,,---,0.00,VWS V13.01,2013-06-30 04:12:00,
2013-06-30 00:16:00,75.9,72.8,29.65,SW,234,0.0,9.0,90,0.00,,---,0.00,VWS V13.01,2013-06-30 04:16:00,
2013-06-30 00:17:00,75.9,72.8,29.65,SSW,196,0.0,9.0,90,0.00,,---,0.00,VWS V13.01,2013-06-30 04:17:00,
2013-06-30 00:21:00,75.9,72.8,29.65,South,188,0.0,9.0,90,0.00,,---,0.00,VWS V13.01,2013-06-30 04:21:00,
2013-06-30 00:22:00,75.9,72.8,29.65,SSW,193,0.0,9.0,90,0.00,,---,0.00,VWS V13.01,2013-06-30 04:22:00,
2013-06-30 00:26:00,75.9,72.8,29.65,SW,218,5.0,9.0,90,0.00,,---,0.00,VWS V13.01,2013-06-30 04:26:00,
2013-06-30 00:27:00,75.9,72.8,29.65,SSE,149,5.0,9.0,90,0.00,,---,0.00,VWS V13.01,2013-06-30 04:27:00,
2013-06-30 00:31:00,75.9,72.8,29.65,SW,225,0.0,10.0,90,0.00,,---,0.00,VWS V13.01,2013-06-30 04:31:00,
2013-06-30 00:32:00,75.9,72.8,29.65,SSE,165,0.0,2.0,90,0.00,,---,0.00,VWS V13.01,2013-06-30 04:32:00,
2013-06-30 00:36:00,75.9,72.8,29.65,SSW,209,0.0,5.0,90,0.00,,---,0.00,VWS V13.01,2013-06-30 04:36:00,
2013-06-30 00:37:00,75.9,72.8,29.65,SSW,213,0.0,6.0,90,0.00,,---,0.00,VWS V13.01,2013-06-30 04:37:00,
2013-06-30 00:41:00,75.9,72.8,29.65,South,188,1.0,6.0,90,0.00,,---,0.00,VWS V13.01,2013-06-30 04:41:00,
2013-06-30 00:42:00,75.9,72.8,29.65,SSW,199,0.0,6.0,90,0.00,,---,0.00,VWS V13.01,2013-06-30 04:42:00,
2013-06-30 00:46:00,75.9,72.8,29.65,SW,215,0.0,6.0,90,0.00,,---,0.00,VWS V13.01,2013-06-30 04:46:00,
2013-06-30 00:47:00,75.9,72.8,29.65,SW,215,0.0,6.0,90,0.00,,---,0.00,VWS V13.01,2013-06-30 04:47:00,
2013-06-30 00:51:00,75.9,72.8,29.65,SSW,192,0.0,6.0,90,0.00,,---,0.00,VWS V13.01,2013-06-30 04:51:00,
2013-06-30 00:52:00,75.8,72.7,29.65,SW,230,0.0,6.0,90,0.00,,---,0.00,VWS V13.01,2013-06-30 04:52:00,
2013-06-30 00:53:00,75.8,72.7,29.65,SW,229,0.0,6.0,90,0.00,,---,0.00,VWS V13.01,2013-06-30 04:53:00,
2013-06-30 00:56:00,75.8,72.7,29.65,South,184,5.0,6.0,90,0.00,,---,0.00,VWS V13.01,2013-06-30 04:56:00,
2013-06-30 00:57:00,75.8,72.7,29.65,SSW,196,2.0,6.0,90,0.00,,---,0.00,VWS V13.01,2013-06-30 04:57:00,
2013-06-30 00:58:00,75.8,72.7,29.65,South,188,0.0,6.0,90,0.00,,---,0.00,VWS V13.01,2013-06-30 04:58:00,
2013-06-30 01:01:00,75.8,72.7,29.65,SW,236,1.0,1.0,90,0.00,,---,0.00,VWS V13.01,2013-06-30 05:01:00,
2013-06-30 01:02:00,75.8,72.7,29.65,SW,234,0.0,1.0,90,0.00,,---,0.00,VWS V13.01,2013-06-30 05:02:00,
2013-06-30 01:03:00,75.8,72.7,29.66,South,178,2.0,5.0,90,0.00,,---,0.00,VWS V13.01,2013-06-30 05:03:00,
2013-06-30 01:07:00,75.8,72.7,29.66,West,260,1.0,5.0,90,0.00,,---,0.00,VWS V13.01,2013-06-30 05:07:00,
2013-06-30 01:08:00,75.8,72.7,29.65,SW,222,2.0,5.0,90,0.00,,---,0.00,VWS V13.01,2013-06-30 05:08:00,
2013-06-30 01:12:00,75.8,72.7,29.65,SSW,205,0.0,5.0,90,0.00,,---,0.00,VWS V13.01,2013-06-30 05:12:00,
2013-06-30 01:13:00,75.8,72.7,29.65,South,190,0.0,7.0,90,0.00,,---,0.00,VWS V13.01,2013-06-30 05:13:00,
2013-06-30 01:17:00,75.7,72.2,29.65,South,176,0.0,7.0,89,0.00,,---,0.00,VWS V13.01,2013-06-30 05:17:00,
2013-06-30 01:18:00,75.7,72.2,29.65,South,176,0.0,7.0,89,0.00,,---,0.00,VWS V13.01,2013-06-30 05:18:00,
2013-06-30 01:22:00,75.7,72.2,29.65,SW,219,0.0,7.0,89,0.00,,---,0.00,VWS V13.01,2013-06-30 05:22:00,
2013-06-30 01:23:00,75.7,72.2,29.65,SW,218,0.0,7.0,89,0.00,,---,0.00,VWS V13.01,2013-06-30 05:23:00,
2013-06-30 01:27:00,75.7,72.2,29.65,SW,215,0.0,7.0,89,0.00,,---,0.00,VWS V13.01,2013-06-30 05:27:00,
2013-06-30 01:28:00,75.6,72.1,29.65,SW,215,0.0,7.0,89,0.00,,---,0.00,VWS V13.01,2013-06-30 05:28:00,
2013-06-30 01:32:00,75.6,72.1,29.65,SW,216,0.0,1.0,89,0.00,,---,0.00,VWS V13.01,2013-06-30 05:32:00,
2013-06-30 01:33:00,75.6,72.1,29.65,SW,217,0.0,1.0,89,0.00,,---,0.00,VWS V13.01,2013-06-30 05:33:00,
2013-06-30 01:34:00,75.6,72.1,29.65,SW,217,0.0,1.0,89,0.00,,---,0.00,VWS V13.01,2013-06-30 05:34:00,
2013-06-30 01:37:00,75.6,72.1,29.66,SSW,203,0.0,4.0,89,0.00,,---,0.00,VWS V13.01,2013-06-30 05:37:00,
2013-06-30 01:38:00,75.5,72.0,29.65,South,169,0.0,4.0,89,0.00,,---,0.00,VWS V13.01,2013-06-30 05:38:00,
2013-06-30 01:39:00,75.5,72.0,29.65,South,174,0.0,4.0,89,0.00,,---,0.00,VWS V13.01,2013-06-30 05:39:00,
2013-06-30 01:42:00,75.5,72.0,29.65,South,178,3.0,5.0,89,0.00,,---,0.00,VWS V13.01,2013-06-30 05:42:00,
2013-06-30 01:44:00,75.5,72.0,29.65,SW,221,0.0,5.0,89,0.00,,---,0.00,VWS V13.01,2013-06-30 05:44:00,
2013-06-30 01:47:00,75.4,71.9,29.65,SSW,194,0.0,5.0,89,0.00,,---,0.00,VWS V13.01,2013-06-30 05:47:00,
2013-06-30 01:48:00,75.4,71.9,29.65,SSW,194,0.0,5.0,89,0.00,,---,0.00,VWS V13.01,2013-06-30 05:48:00,
2013-06-30 01:49:00,75.4,71.9,29.65,WSW,246,0.0,5.0,89,0.00,,---,0.00,VWS V13.01,2013-06-30 05:49:00,
2013-06-30 01:52:00,75.4,71.9,29.65,SSW,205,0.0,6.0,89,0.00,,---,0.00,VWS V13.01,2013-06-30 05:52:00,
2013-06-30 01:53:00,75.3,71.8,29.65,SSW,205,0.0,6.0,89,0.00,,---,0.00,VWS V13.01,2013-06-30 05:53:00,
2013-06-30 01:54:00,75.3,71.8,29.65,SSW,200,3.0,7.0,89,0.00,,---,0.00,VWS V13.01,2013-06-30 05:54:00,
2013-06-30 01:55:00,75.3,71.8,29.65,SSW,200,0.0,7.0,89,0.00,,---,0.00,VWS V13.01,2013-06-30 05:55:00,
2013-06-30 01:57:00,75.3,71.8,29.65,SSW,210,0.0,7.0,89,0.00,,---,0.00,VWS V13.01,2013-06-30 05:57:00,
2013-06-30 01:58:00,75.3,71.8,29.65,SSW,210,0.0,7.0,89,0.00,,---,0.00,VWS V13.01,2013-06-30 05:58:00,
2013-06-30 01:59:00,75.3,71.8,29.65,SSW,210,0.0,7.0,89,0.00,,---,0.00,VWS V13.01,2013-06-30 05:59:00,
2013-06-30 02:00:00,75.3,71.8,29.65,SSW,211,3.0,7.0,89,0.00,,---,0.00,VWS V13.01,2013-06-30 06:00:00,
2013-06-30 02:02:00,75.2,71.7,29.65,SSW,203,0.0,5.0,89,0.00,,---,0.00,VWS V13.01,2013-06-30 06:02:00,
2013-06-30 02:03:00,75.2,71.7,29.65,South,180,0.0,5.0,89,0.00,,---,0.00,VWS V13.01,2013-06-30 06:03:00,
2013-06-30 02:04:00,75.2,71.7,29.65,SSE,167,0.0,6.0,89,0.00,,---,0.00,VWS V13.01,2013-06-30 06:04:00,
2013-06-30 02:05:00,75.2,71.7,29.65,SSW,198,4.0,6.0,89,0.00,,---,0.00,VWS V13.01,2013-06-30 06:05:00,
2013-06-30 02:07:00,75.2,71.7,29.65,SSE,164,0.0,6.0,89,0.00,,---,0.00,VWS V13.01,2013-06-30 06:07:00,
2013-06-30 02:08:00,75.2,71.7,29.65,SSE,164,0.0,6.0,89,0.00,,---,0.00,VWS V13.01,2013-06-30 06:08:00,
2013-06-30 02:10:00,75.2,71.7,29.65,SSW,213,0.0,6.0,89,0.00,,---,0.00,VWS V13.01,2013-06-30 06:10:00,
2013-06-30 02:13:00,75.1,71.6,29.65,South,184,0.0,6.0,89,0.00,,---,0.00,VWS V13.01,2013-06-30 06:13:00,
2013-06-30 02:15:00,75.1,71.6,29.65,WSW,238,4.0,6.0,89,0.00,,---,0.00,VWS V13.01,2013-06-30 06:15:00,
2013-06-30 02:18:00,75.0,71.5,29.65,SW,217,9.0,9.0,89,0.00,,---,0.00,VWS V13.01,2013-06-30 06:18:00,
2013-06-30 02:20:00,75.0,71.5,29.65,SSW,198,0.0,9.0,89,0.00,,---,0.00,VWS V13.01,2013-06-30 06:20:00,
2013-06-30 02:23:00,75.0,71.5,29.65,SW,219,9.0,10.0,89,0.00,,---,0.00,VWS V13.01,2013-06-30 06:23:00,
2013-06-30 02:24:00,74.9,71.4,29.65,SSW,205,2.0,10.0,89,0.00,,---,0.00,VWS V13.01,2013-06-30 06:24:00,
2013-06-30 02:25:00,74.9,71.4,29.64,SW,233,0.0,10.0,89,0.00,,---,0.00,VWS V13.01,2013-06-30 06:25:00,
2013-06-30 02:28:00,74.9,71.4,29.64,SW,216,0.0,10.0,89,0.00,,---,0.00,VWS V13.01,2013-06-30 06:28:00,
2013-06-30 02:29:00,74.9,71.4,29.64,SW,215,0.0,10.0,89,0.00,,---,0.00,VWS V13.01,2013-06-30 06:29:00,
2013-06-30 02:30:00,74.9,71.4,29.65,WSW,241,3.0,13.0,89,0.00,,---,0.00,VWS V13.01,2013-06-30 06:30:00,
2013-06-30 02:33:00,74.9,71.4,29.64,SSW,201,0.0,5.0,89,0.00,,---,0.00,VWS V13.01,2013-06-30 06:33:00,
2013-06-30 02:34:00,74.9,71.4,29.64,SSW,192,0.0,5.0,89,0.00,,---,0.00,VWS V13.01,2013-06-30 06:34:00,
2013-06-30 02:35:00,74.9,71.4,29.64,WSW,244,1.0,5.0,89,0.00,,---,0.00,VWS V13.01,2013-06-30 06:35:00,
2013-06-30 02:36:00,74.9,71.4,29.64,WSW,245,0.0,5.0,89,0.00,,---,0.00,VWS V13.01,2013-06-30 06:36:00,
2013-06-30 02:38:00,74.9,71.8,29.64,SW,229,0.0,5.0,90,0.00,,---,0.00,VWS V13.01,2013-06-30 06:38:00,
2013-06-30 02:39:00,74.9,71.8,29.64,SW,218,6.0,6.0,90,0.00,,---,0.00,VWS V13.01,2013-06-30 06:39:00,
2013-06-30 02:41:00,74.8,71.7,29.64,SW,225,3.0,6.0,90,0.00,,---,0.00,VWS V13.01,2013-06-30 06:41:00,
2013-06-30 02:43:00,74.8,71.7,29.64,SSE,158,0.0,6.0,90,0.00,,---,0.00,VWS V13.01,2013-06-30 06:43:00,
2013-06-30 02:44:00,74.8,71.7,29.64,SSE,157,1.0,6.0,90,0.00,,---,0.00,VWS V13.01,2013-06-30 06:44:00,
2013-06-30 02:46:00,74.8,71.7,29.64,SSE,157,0.0,6.0,90,0.00,,---,0.00,VWS V13.01,2013-06-30 06:46:00,
2013-06-30 02:48:00,74.8,71.7,29.64,SSW,202,0.0,6.0,90,0.00,,---,0.00,VWS V13.01,2013-06-30 06:48:00,
2013-06-30 02:50:00,74.8,71.7,29.64,SSW,202,0.0,6.0,90,0.00,,---,0.00,VWS V13.01,2013-06-30 06:50:00,
2013-06-30 02:51:00,74.8,71.7,29.64,SSW,209,1.0,6.0,90,0.00,,---,0.00,VWS V13.01,2013-06-30 06:51:00,
2013-06-30 02:53:00,74.8,71.7,29.64,SW,217,0.0,6.0,90,0.00,,---,0.00,VWS V13.01,2013-06-30 06:53:00,
2013-06-30 02:55:00,74.8,71.7,29.64,SW,214,0.0,6.0,90,0.00,,---,0.00,VWS V13.01,2013-06-30 06:55:00,
2013-06-30 02:56:00,74.8,71.7,29.64,SW,223,3.0,6.0,90,0.00,,---,0.00,VWS V13.01,2013-06-30 06:56:00,
2013-06-30 02:57:00,74.8,71.7,29.64,SSE,153,3.0,6.0,90,0.00,,---,0.00,VWS V13.01,2013-06-30 06:57:00,
2013-06-30 02:59:00,74.8,71.7,29.64,South,172,0.0,6.0,90,0.00,,---,0.00,VWS V13.01,2013-06-30 06:59:00,
2013-06-30 03:00:00,74.7,71.6,29.64,SSW,213,3.0,6.0,90,0.00,,---,0.00,VWS V13.01,2013-06-30 07:00:00,
2013-06-30 03:01:00,74.7,71.6,29.64,South,190,0.0,6.0,90,0.00,,---,0.00,VWS V13.01,2013-06-30 07:01:00,
2013-06-30 03:02:00,74.7,71.6,29.64,SW,215,0.0,1.0,90,0.00,,---,0.00,VWS V13.01,2013-06-30 07:02:00,
2013-06-30 03:04:00,74.7,71.6,29.64,SSW,192,2.0,2.0,90,0.00,,---,0.00,VWS V13.01,2013-06-30 07:04:00,
2013-06-30 03:05:00,74.7,71.9,29.64,SSW,202,0.0,7.0,91,0.00,,---,0.00,VWS V13.01,2013-06-30 07:05:00,
2013-06-30 03:06:00,74.7,71.9,29.64,SW,221,4.0,7.0,91,0.00,,---,0.00,VWS V13.01,2013-06-30 07:06:00,
2013-06-30 03:08:00,74.7,71.9,29.64,SSW,195,0.0,7.0,91,0.00,,---,0.00,VWS V13.01,2013-06-30 07:08:00,
2013-06-30 03:09:00,74.7,71.9,29.64,SSW,196,0.0,7.0,91,0.00,,---,0.00,VWS V13.01,2013-06-30 07:09:00,
2013-06-30 03:10:00,74.7,71.9,29.64,SSE,167,0.0,7.0,91,0.00,,---,0.00,VWS V13.01,2013-06-30 07:10:00,
2013-06-30 03:11:00,74.7,71.9,29.64,SSE,167,0.0,7.0,91,0.00,,---,0.00,VWS V13.01,2013-06-30 07:11:00,
2013-06-30 03:13:00,74.7,71.9,29.65,SSE,167,0.0,7.0,91,0.00,,---,0.00,VWS V13.01,2013-06-30 07:13:00,
2013-06-30 03:14:00,74.7,71.9,29.64,SSE,151,2.0,7.0,91,0.00,,---,0.00,VWS V13.01,2013-06-30 07:14:00,
2013-06-30 03:15:00,74.7,71.9,29.64,SSW,206,3.0,7.0,91,0.00,,---,0.00,VWS V13.01,2013-06-30 07:15:00,
2013-06-30 03:16:00,74.7,71.9,29.64,SSE,157,0.0,7.0,91,0.00,,---,0.00,VWS V13.01,2013-06-30 07:16:00,
2013-06-30 03:17:00,74.7,71.9,29.64,SSW,210,5.0,7.0,91,0.00,,---,0.00,VWS V13.01,2013-06-30 07:17:00,
2013-06-30 03:18:00,74.7,71.9,29.64,SSW,203,0.0,7.0,91,0.00,,---,0.00,VWS V13.01,2013-06-30 07:18:00,
2013-06-30 03:19:00,74.6,71.8,29.64,SSW,200,5.0,7.0,91,0.00,,---,0.00,VWS V13.01,2013-06-30 07:19:00,
2013-06-30 03:20:00,74.7,71.9,29.64,SSW,205,0.0,7.0,91,0.00,,---,0.00,VWS V13.01,2013-06-30 07:20:00,
2013-06-30 03:21:00,74.7,71.9,29.64,SSW,208,0.0,7.0,91,0.00,,---,0.00,VWS V13.01,2013-06-30 07:21:00,
2013-06-30 03:22:00,74.7,71.9,29.64,SSW,209,3.0,7.0,91,0.00,,---,0.00,VWS V13.01,2013-06-30 07:22:00,
2013-06-30 03:23:00,74.6,71.8,29.64,SW,217,0.0,7.0,91,0.00,,---,0.00,VWS V13.01,2013-06-30 07:23:00,
2013-06-30 03:24:00,74.7,71.9,29.64,SW,217,0.0,7.0,91,0.00,,---,0.00,VWS V13.01,2013-06-30 07:24:00,
2013-06-30 03:26:00,74.6,71.8,29.64,SW,217,0.0,7.0,91,0.00,,---,0.00,VWS V13.01,2013-06-30 07:26:00,
2013-06-30 03:27:00,74.6,71.8,29.64,SW,217,0.0,7.0,91,0.00,,---,0.00,VWS V13.01,2013-06-30 07:27:00,
2013-06-30 03:28:00,74.6,71.8,29.64,SSW,212,0.0,7.0,91,0.00,,---,0.00,VWS V13.01,2013-06-30 07:28:00,
2013-06-30 03:29:00,74.6,72.1,29.64,SSW,212,0.0,7.0,92,0.00,,---,0.00,VWS V13.01,2013-06-30 07:29:00,
2013-06-30 03:31:00,74.6,72.1,29.64,SW,227,2.0,7.0,92,0.00,,---,0.00,VWS V13.01,2013-06-30 07:31:00,
2013-06-30 03:32:00,74.6,72.1,29.64,SW,223,0.0,7.0,92,0.00,,---,0.00,VWS V13.01,2013-06-30 07:32:00,
2013-06-30 03:34:00,74.6,72.1,29.64,SW,222,0.0,7.0,92,0.00,,---,0.00,VWS V13.01,2013-06-30 07:34:00,
2013-06-30 03:36:00,74.6,72.1,29.64,SW,233,0.0,7.0,92,0.00,,---,0.00,VWS V13.01,2013-06-30 07:36:00,
2013-06-30 03:37:00,74.6,72.1,29.64,West,263,1.0,7.0,92,0.00,,---,0.00,VWS V13.01,2013-06-30 07:37:00,
2013-06-30 03:39:00,74.6,72.1,29.63,SSW,211,2.0,7.0,92,0.00,,---,0.00,VWS V13.01,2013-06-30 07:39:00,
2013-06-30 03:40:00,74.6,72.1,29.63,SSW,200,0.0,7.0,92,0.00,,---,0.00,VWS V13.01,2013-06-30 07:40:00,
2013-06-30 03:41:00,74.6,72.1,29.63,SSW,200,1.0,7.0,92,0.00,,---,0.00,VWS V13.01,2013-06-30 07:41:00,
2013-06-30 03:42:00,74.6,72.1,29.63,South,184,3.0,7.0,92,0.00,,---,0.00,VWS V13.01,2013-06-30 07:42:00,
2013-06-30 03:44:00,74.6,72.1,29.63,SW,230,0.0,7.0,92,0.00,,---,0.00,VWS V13.01,2013-06-30 07:44:00,
2013-06-30 03:45:00,74.7,72.2,29.63,SW,230,0.0,7.0,92,0.00,,---,0.00,VWS V13.01,2013-06-30 07:45:00,
2013-06-30 03:46:00,74.6,72.1,29.63,SW,226,0.0,7.0,92,0.00,,---,0.00,VWS V13.01,2013-06-30 07:46:00,
2013-06-30 03:47:00,74.7,72.2,29.63,SW,223,0.0,7.0,92,0.00,,---,0.00,VWS V13.01,2013-06-30 07:47:00,
2013-06-30 03:48:00,74.7,72.2,29.63,SW,223,0.0,7.0,92,0.00,,---,0.00,VWS V13.01,2013-06-30 07:48:00,
2013-06-30 03:49:00,74.7,72.2,29.63,SW,215,0.0,7.0,92,0.00,,---,0.00,VWS V13.01,2013-06-30 07:49:00,
2013-06-30 03:50:00,74.7,72.2,29.63,SW,216,0.0,7.0,92,0.00,,---,0.00,VWS V13.01,2013-06-30 07:50:00,
2013-06-30 03:51:00,74.7,72.2,29.63,West,261,0.0,7.0,92,0.00,,---,0.00,VWS V13.01,2013-06-30 07:51:00,
2013-06-30 03:52:00,74.6,72.1,29.63,SW,227,0.0,7.0,92,0.00,,---,0.00,VWS V13.01,2013-06-30 07:52:00,
2013-06-30 03:53:00,74.7,72.2,29.63,SSW,207,2.0,7.0,92,0.00,,---,0.00,VWS V13.01,2013-06-30 07:53:00,
2013-06-30 03:54:00,74.7,72.2,29.63,South,169,0.0,7.0,92,0.00,,---,0.00,VWS V13.01,2013-06-30 07:54:00,
2013-06-30 03:55:00,74.7,72.2,29.63,South,172,0.0,7.0,92,0.00,,---,0.00,VWS V13.01,2013-06-30 07:55:00,
2013-06-30 03:56:00,74.7,72.2,29.63,South,172,0.0,7.0,92,0.00,,---,0.00,VWS V13.01,2013-06-30 07:56:00,
2013-06-30 03:58:00,74.7,72.2,29.63,SSW,196,6.0,7.0,92,0.00,,---,0.00,VWS V13.01,2013-06-30 07:58:00,
2013-06-30 03:59:00,74.7,72.2,29.63,SW,217,0.0,7.0,92,0.00,,---,0.00,VWS V13.01,2013-06-30 07:59:00,
2013-06-30 04:00:00,74.7,72.2,29.63,SSW,198,0.0,7.0,92,0.00,,---,0.00,VWS V13.01,2013-06-30 08:00:00,
2013-06-30 04:01:00,74.7,72.2,29.63,SSW,198,0.0,7.0,92,0.00,,---,0.00,VWS V13.01,2013-06-30 08:01:00,
2013-06-30 04:03:00,74.7,72.2,29.63,SSW,198,0.0,1.0,92,0.00,,---,0.00,VWS V13.01,2013-06-30 08:03:00,
2013-06-30 04:04:00,74.7,72.2,29.63,SW,225,4.0,4.0,92,0.00,,---,0.00,VWS V13.01,2013-06-30 08:04:00,
2013-06-30 04:05:00,74.7,72.2,29.63,SW,225,0.0,7.0,92,0.00,,---,0.00,VWS V13.01,2013-06-30 08:05:00,
2013-06-30 04:06:00,74.7,72.2,29.63,SSW,195,4.0,10.0,92,0.00,,---,0.00,VWS V13.01,2013-06-30 08:06:00,
2013-06-30 04:08:00,74.7,72.2,29.63,SSW,207,0.0,10.0,92,0.00,,---,0.00,VWS V13.01,2013-06-30 08:08:00,
2013-06-30 04:09:00,74.7,72.2,29.63,SSW,208,0.0,10.0,92,0.00,,---,0.00,VWS V13.01,2013-06-30 08:09:00,
2013-06-30 04:10:00,74.7,72.2,29.63,SSW,208,0.0,10.0,92,0.00,,---,0.00,VWS V13.01,2013-06-30 08:10:00,
2013-06-30 04:11:00,74.7,72.2,29.63,SSW,208,0.0,10.0,92,0.00,,---,0.00,VWS V13.01,2013-06-30 08:11:00,
2013-06-30 04:13:00,74.7,72.2,29.63,SSE,168,0.0,10.0,92,0.00,,---,0.00,VWS V13.01,2013-06-30 08:13:00,
2013-06-30 04:14:00,74.7,72.2,29.63,SSE,168,0.0,10.0,92,0.00,,---,0.00,VWS V13.01,2013-06-30 08:14:00,
2013-06-30 04:15:00,74.7,72.6,29.63,SSE,168,0.0,10.0,93,0.00,,---,0.00,VWS V13.01,2013-06-30 08:15:00,
2013-06-30 04:16:00,74.7,72.6,29.63,SSE,168,0.0,10.0,93,0.00,,---,0.00,VWS V13.01,2013-06-30 08:16:00,
2013-06-30 04:18:00,74.7,72.6,29.63,SSW,202,0.0,10.0,93,0.00,,---,0.00,VWS V13.01,2013-06-30 08:18:00,
2013-06-30 04:19:00,74.7,72.6,29.63,SSW,202,0.0,10.0,93,0.00,,---,0.00,VWS V13.01,2013-06-30 08:19:00,
2013-06-30 04:20:00,74.7,72.6,29.63,SW,224,4.0,10.0,93,0.00,,---,0.00,VWS V13.01,2013-06-30 08:20:00,
2013-06-30 04:21:00,74.7,72.6,29.63,SW,229,0.0,10.0,93,0.00,,---,0.00,VWS V13.01,2013-06-30 08:21:00,
2013-06-30 04:24:00,74.7,72.6,29.63,SW,229,0.0,10.0,93,0.00,,---,0.00,VWS V13.01,2013-06-30 08:24:00,
2013-06-30 04:26:00,74.7,72.6,29.63,SW,229,0.0,10.0,93,0.00,,---,0.00,VWS V13.01,2013-06-30 08:26:00,
2013-06-30 04:28:00,74.6,72.4,29.63,South,180,0.0,10.0,93,0.00,,---,0.00,VWS V13.01,2013-06-30 08:28:00,
2013-06-30 04:29:00,74.6,72.4,29.63,South,182,0.0,10.0,93,0.00,,---,0.00,VWS V13.01,2013-06-30 08:29:00,
2013-06-30 04:31:00,74.6,72.1,29.64,South,190,1.0,10.0,92,0.00,,---,0.00,VWS V13.01,2013-06-30 08:31:00,
2013-06-30 04:32:00,74.6,72.1,29.64,SSW,199,0.0,1.0,92,0.00,,---,0.00,VWS V13.01,2013-06-30 08:32:00,
2013-06-30 04:34:00,74.6,72.1,29.64,SSE,167,0.0,5.0,92,0.00,,---,0.00,VWS V13.01,2013-06-30 08:34:00,
2013-06-30 04:36:00,74.6,72.4,29.64,SSE,168,0.0,5.0,93,0.00,,---,0.00,VWS V13.01,2013-06-30 08:36:00,
2013-06-30 04:37:00,74.6,72.4,29.64,South,169,0.0,5.0,93,0.00,,---,0.00,VWS V13.01,2013-06-30 08:37:00,
2013-06-30 04:39:00,74.6,72.4,29.64,SW,217,0.0,5.0,93,0.00,,---,0.00,VWS V13.01,2013-06-30 08:39:00,
2013-06-30 04:42:00,74.6,72.4,29.64,SE,142,0.0,5.0,93,0.00,,---,0.00,VWS V13.01,2013-06-30 08:42:00,
2013-06-30 04:44:00,74.6,72.4,29.64,SE,144,0.0,5.0,93,0.00,,---,0.00,VWS V13.01,2013-06-30 08:44:00,
2013-06-30 04:47:00,74.5,72.3,29.64,SE,144,0.0,5.0,93,0.00,,---,0.00,VWS V13.01,2013-06-30 08:47:00,
2013-06-30 04:49:00,74.5,72.3,29.64,SSE,158,0.0,5.0,93,0.00,,---,0.00,VWS V13.01,2013-06-30 08:49:00,
2013-06-30 04:52:00,74.5,72.3,29.64,SSE,156,0.0,5.0,93,0.00,,---,0.00,VWS V13.01,2013-06-30 08:52:00,
2013-06-30 04:54:00,74.5,72.3,29.64,SSW,213,0.0,5.0,93,0.00,,---,0.00,VWS V13.01,2013-06-30 08:54:00,
2013-06-30 04:55:00,74.5,72.3,29.64,SSW,212,0.0,5.0,93,0.00,,---,0.00,VWS V13.01,2013-06-30 08:55:00,
2013-06-30 04:57:00,74.5,72.3,29.64,SSW,192,0.0,5.0,93,0.00,,---,0.00,VWS V13.01,2013-06-30 08:57:00,
2013-06-30 04:59:00,74.5,72.3,29.64,SSW,193,0.0,5.0,93,0.00,,---,0.00,VWS V13.01,2013-06-30 08:59:00,
2013-06-30 05:00:00,74.5,72.3,29.64,SSW,192,0.0,5.0,93,0.00,,---,0.00,VWS V13.01,2013-06-30 09:00:00,
2013-06-30 05:02:00,74.5,72.3,29.64,South,182,0.0,0.0,93,0.00,,---,0.00,VWS V13.01,2013-06-30 09:02:00,
2013-06-30 05:04:00,74.5,72.3,29.64,South,184,0.0,1.0,93,0.00,,---,0.00,VWS V13.01,2013-06-30 09:04:00,
2013-06-30 05:05:00,74.5,72.3,29.64,South,177,0.0,1.0,93,0.00,,---,0.00,VWS V13.01,2013-06-30 09:05:00,
2013-06-30 05:07:00,74.5,72.3,29.65,SSW,213,0.0,5.0,93,0.00,,---,0.00,VWS V13.01,2013-06-30 09:07:00,
2013-06-30 05:09:00,74.5,72.3,29.65,SSW,211,0.0,5.0,93,0.00,,---,0.00,VWS V13.01,2013-06-30 09:09:00,
2013-06-30 05:10:00,74.5,72.3,29.65,SSW,211,0.0,5.0,93,0.00,,---,0.00,VWS V13.01,2013-06-30 09:10:00,
2013-06-30 05:12:00,74.5,72.3,29.65,SE,138,0.0,5.0,93,0.00,,---,0.00,VWS V13.01,2013-06-30 09:12:00,
2013-06-30 05:14:00,74.5,72.3,29.65,SSW,198,0.0,5.0,93,0.00,,---,0.00,VWS V13.01,2013-06-30 09:14:00,
2013-06-30 05:15:00,74.5,72.3,29.65,SSW,198,0.0,5.0,93,0.00,,---,0.00,VWS V13.01,2013-06-30 09:15:00,
2013-06-30 05:17:00,74.5,72.3,29.65,SSW,198,0.0,5.0,93,0.00,,---,0.00,VWS V13.01,2013-06-30 09:17:00,
2013-06-30 05:18:00,74.5,72.3,29.65,SSW,196,1.0,5.0,93,0.00,,---,0.00,VWS V13.01,2013-06-30 09:18:00,
2013-06-30 05:19:00,74.5,72.3,29.65,South,184,0.0,5.0,93,0.00,,---,0.00,VWS V13.01,2013-06-30 09:19:00,
2013-06-30 05:20:00,74.5,72.3,29.65,South,187,0.0,5.0,93,0.00,,---,0.00,VWS V13.01,2013-06-30 09:20:00,
2013-06-30 05:22:00,74.5,72.3,29.65,South,184,0.0,5.0,93,0.00,,---,0.00,VWS V13.01,2013-06-30 09:22:00,
2013-06-30 05:23:00,74.5,72.3,29.65,South,184,0.0,5.0,93,0.00,,---,0.00,VWS V13.01,2013-06-30 09:23:00,
2013-06-30 05:25:00,74.5,72.3,29.65,South,184,0.0,5.0,93,0.00,,---,0.00,VWS V13.01,2013-06-30 09:25:00,
2013-06-30 05:27:00,74.5,72.3,29.65,South,184,0.0,5.0,93,0.00,,---,0.00,VWS V13.01,2013-06-30 09:27:00,
2013-06-30 05:28:00,74.5,72.3,29.65,South,184,0.0,5.0,93,0.00,,---,0.00,VWS V13.01,2013-06-30 09:28:00,
2013-06-30 05:30:00,74.5,72.3,29.65,South,173,0.0,5.0,93,0.00,,---,0.00,VWS V13.01,2013-06-30 09:30:00,
2013-06-30 05:33:00,74.5,72.3,29.65,SW,214,0.0,2.0,93,0.00,,---,0.00,VWS V13.01,2013-06-30 09:33:00,
2013-06-30 05:35:00,74.5,72.3,29.65,South,184,0.0,5.0,93,0.00,,---,0.00,VWS V13.01,2013-06-30 09:35:00,
2013-06-30 05:36:00,74.5,72.3,29.65,South,184,0.0,5.0,93,0.00,,---,0.00,VWS V13.01,2013-06-30 09:36:00,
2013-06-30 05:38:00,74.5,72.3,29.65,South,169,0.0,5.0,93,0.00,,---,0.00,VWS V13.01,2013-06-30 09:38:00,
2013-06-30 05:41:00,74.5,72.3,29.66,South,171,0.0,5.0,93,0.00,,---,0.00,VWS V13.01,2013-06-30 09:41:00,
2013-06-30 05:43:00,74.5,72.3,29.66,SSW,194,3.0,6.0,93,0.00,,---,0.00,VWS V13.01,2013-06-30 09:43:00,
2013-06-30 05:46:00,74.5,72.3,29.66,SSW,194,0.0,6.0,93,0.00,,---,0.00,VWS V13.01,2013-06-30 09:46:00,
2013-06-30 05:48:00,74.5,72.3,29.66,South,191,0.0,6.0,93,0.00,,---,0.00,VWS V13.01,2013-06-30 09:48:00,
2013-06-30 05:49:00,74.5,72.3,29.66,SW,220,2.0,6.0,93,0.00,,---,0.00,VWS V13.01,2013-06-30 09:49:00,
2013-06-30 05:51:00,74.5,72.3,29.66,South,175,0.0,6.0,93,0.00,,---,0.00,VWS V13.01,2013-06-30 09:51:00,
2013-06-30 05:53:00,74.5,72.3,29.66,South,173,0.0,6.0,93,0.00,,---,0.00,VWS V13.01,2013-06-30 09:53:00,
2013-06-30 05:54:00,74.5,72.3,29.66,South,174,0.0,6.0,93,0.00,,---,0.00,VWS V13.01,2013-06-30 09:54:00,
2013-06-30 05:56:00,74.5,72.3,29.66,South,173,0.0,6.0,93,0.00,,---,0.00,VWS V13.01,2013-06-30 09:56:00,
2013-06-30 05:58:00,74.5,72.3,29.66,South,174,0.0,6.0,93,0.00,,---,0.00,VWS V13.01,2013-06-30 09:58:00,
2013-06-30 05:59:00,74.5,72.3,29.66,South,175,0.0,6.0,93,0.00,,---,0.00,VWS V13.01,2013-06-30 09:59:00,
2013-06-30 06:01:00,74.5,72.3,29.66,South,175,0.0,6.0,93,0.00,,---,0.00,VWS V13.01,2013-06-30 10:01:00,
2013-06-30 06:04:00,74.5,72.3,29.66,SSE,152,0.0,4.0,93,0.00,,---,0.00,VWS V13.01,2013-06-30 10:04:00,
2013-06-30 06:06:00,74.5,72.3,29.66,SSE,156,0.0,4.0,93,0.00,,---,0.00,VWS V13.01,2013-06-30 10:06:00,
2013-06-30 06:09:00,74.5,72.3,29.66,SSE,156,0.0,4.0,93,0.00,,---,0.00,VWS V13.01,2013-06-30 10:09:00,
2013-06-30 06:10:00,74.5,72.3,29.67,SSE,157,0.0,4.0,93,0.00,,---,0.00,VWS V13.01,2013-06-30 10:10:00,
2013-06-30 06:11:00,74.5,72.3,29.67,SSE,157,0.0,4.0,93,0.00,,---,0.00,VWS V13.01,2013-06-30 10:11:00,
2013-06-30 06:12:00,74.4,72.2,29.67,SSE,157,0.0,4.0,93,0.00,,---,0.00,VWS V13.01,2013-06-30 10:12:00,
2013-06-30 06:14:00,74.4,72.2,29.67,SSE,157,0.0,4.0,93,0.00,,---,0.00,VWS V13.01,2013-06-30 10:14:00,
2013-06-30 06:15:00,74.4,72.2,29.67,SSE,156,0.0,4.0,93,0.00,,---,0.00,VWS V13.01,2013-06-30 10:15:00,
2013-06-30 06:16:00,74.4,72.2,29.67,SSE,157,0.0,4.0,93,0.00,,---,0.00,VWS V13.01,2013-06-30 10:16:00,
2013-06-30 06:17:00,74.4,72.2,29.67,SSE,157,0.0,4.0,93,0.00,,---,0.00,VWS V13.01,2013-06-30 10:17:00,
2013-06-30 06:19:00,74.4,72.2,29.67,SSE,157,0.0,4.0,93,0.00,,---,0.00,VWS V13.01,2013-06-30 10:19:00,
2013-06-30 06:20:00,74.4,72.2,29.67,SSE,157,0.0,4.0,93,0.00,,---,0.00,VWS V13.01,2013-06-30 10:20:00,
2013-06-30 06:21:00,74.4,72.2,29.67,SSE,157,0.0,4.0,93,0.00,,---,0.00,VWS V13.01,2013-06-30 10:21:00,
2013-06-30 06:22:00,74.4,72.2,29.67,SSE,157,0.0,4.0,93,0.00,,---,0.00,VWS V13.01,2013-06-30 10:22:00,
2013-06-30 06:24:00,74.4,72.2,29.67,SSE,164,0.0,4.0,93,0.00,,---,0.00,VWS V13.01,2013-06-30 10:24:00,
2013-06-30 06:25:00,74.4,72.2,29.67,South,182,0.0,4.0,93,0.00,,---,0.00,VWS V13.01,2013-06-30 10:25:00,
2013-06-30 06:26:00,74.3,72.2,29.67,South,182,0.0,4.0,93,0.00,,---,0.00,VWS V13.01,2013-06-30 10:26:00,
2013-06-30 06:27:00,74.3,72.2,29.67,South,182,0.0,4.0,93,0.00,,---,0.00,VWS V13.01,2013-06-30 10:27:00,
2013-06-30 06:29:00,74.3,72.2,29.67,South,182,0.0,4.0,93,0.00,,---,0.00,VWS V13.01,2013-06-30 10:29:00,
2013-06-30 06:30:00,74.3,72.2,29.67,South,182,0.0,4.0,93,0.00,,---,0.00,VWS V13.01,2013-06-30 10:30:00,
2013-06-30 06:31:00,74.3,72.2,29.67,South,178,1.0,1.0,93,0.00,,---,0.00,VWS V13.01,2013-06-30 10:31:00,
2013-06-30 06:32:00,74.3,72.2,29.67,South,179,1.0,2.0,93,0.00,,---,0.00,VWS V13.01,2013-06-30 10:32:00,
2013-06-30 06:34:00,74.3,72.5,29.67,South,179,0.0,2.0,94,0.00,,---,0.00,VWS V13.01,2013-06-30 10:34:00,
2013-06-30 06:35:00,74.3,72.5,29.67,South,179,0.0,2.0,94,0.00,,---,0.00,VWS V13.01,2013-06-30 10:35:00,
2013-06-30 06:36:00,74.3,72.5,29.67,South,179,0.0,2.0,94,0.00,,---,0.00,VWS V13.01,2013-06-30 10:36:00,
2013-06-30 06:37:00,74.3,72.5,29.67,South,179,0.0,2.0,94,0.00,,---,0.00,VWS V13.01,2013-06-30 10:37:00,
2013-06-30 06:39:00,74.3,72.5,29.67,South,179,0.0,2.0,94,0.00,,---,0.00,VWS V13.01,2013-06-30 10:39:00,
2013-06-30 06:40:00,74.3,72.5,29.68,South,179,0.0,2.0,94,0.00,,---,0.00,VWS V13.01,2013-06-30 10:40:00,
2013-06-30 06:41:00,74.3,72.5,29.68,South,179,0.0,2.0,94,0.00,,---,0.00,VWS V13.01,2013-06-30 10:41:00,
2013-06-30 06:42:00,74.3,72.5,29.68,South,179,0.0,2.0,94,0.00,,---,0.00,VWS V13.01,2013-06-30 10:42:00,
2013-06-30 06:44:00,74.3,72.5,29.68,South,179,0.0,2.0,94,0.00,,---,0.00,VWS V13.01,2013-06-30 10:44:00,
2013-06-30 06:46:00,74.3,72.5,29.68,South,179,0.0,2.0,94,0.00,,---,0.00,VWS V13.01,2013-06-30 10:46:00,
2013-06-30 06:47:00,74.3,72.5,29.68,South,179,0.0,2.0,94,0.00,,---,0.00,VWS V13.01,2013-06-30 10:47:00,
2013-06-30 06:49:00,74.3,72.5,29.68,South,179,0.0,2.0,94,0.00,,---,0.00,VWS V13.01,2013-06-30 10:49:00,
2013-06-30 06:51:00,74.3,72.5,29.68,South,179,0.0,2.0,94,0.00,,---,0.00,VWS V13.01,2013-06-30 10:51:00,
2013-06-30 06:52:00,74.3,72.5,29.68,South,179,0.0,2.0,94,0.00,,---,0.00,VWS V13.01,2013-06-30 10:52:00,
2013-06-30 06:54:00,74.3,72.5,29.68,South,179,0.0,2.0,94,0.00,,---,0.00,VWS V13.01,2013-06-30 10:54:00,
2013-06-30 06:56:00,74.3,72.5,29.68,South,179,0.0,3.0,94,0.00,,---,0.00,VWS V13.01,2013-06-30 10:56:00,
2013-06-30 06:57:00,74.3,72.5,29.68,South,179,0.0,3.0,94,0.00,,---,0.00,VWS V13.01,2013-06-30 10:57:00,
2013-06-30 06:59:00,74.3,72.5,29.68,South,179,0.0,3.0,94,0.00,,---,0.00,VWS V13.01,2013-06-30 10:59:00,
2013-06-30 07:01:00,74.3,72.5,29.68,South,179,0.0,3.0,94,0.00,,---,0.00,VWS V13.01,2013-06-30 11:01:00,
2013-06-30 07:02:00,74.3,72.5,29.68,South,179,0.0,1.0,94,0.00,,---,0.00,VWS V13.01,2013-06-30 11:02:00,
2013-06-30 07:03:00,74.4,72.6,29.68,South,179,0.0,1.0,94,0.00,,---,0.00,VWS V13.01,2013-06-30 11:03:00,
2013-06-30 07:05:00,74.4,72.6,29.68,SSW,202,2.0,2.0,94,0.00,,---,0.00,VWS V13.01,2013-06-30 11:05:00,
2013-06-30 07:06:00,74.4,72.6,29.68,SW,225,0.0,4.0,94,0.00,,---,0.00,VWS V13.01,2013-06-30 11:06:00,
2013-06-30 07:07:00,74.4,72.6,29.68,SSW,209,0.0,4.0,94,0.00,,---,0.00,VWS V13.01,2013-06-30 11:07:00,
2013-06-30 07:08:00,74.4,72.6,29.68,SSW,197,0.0,4.0,94,0.00,,---,0.00,VWS V13.01,2013-06-30 11:08:00,
2013-06-30 07:10:00,74.4,72.6,29.68,SSW,196,0.0,4.0,94,0.00,,---,0.00,VWS V13.01,2013-06-30 11:10:00,
2013-06-30 07:11:00,74.4,72.6,29.68,SSW,197,0.0,4.0,94,0.00,,---,0.00,VWS V13.01,2013-06-30 11:11:00,
2013-06-30 07:12:00,74.4,72.6,29.68,SSW,196,0.0,4.0,94,0.00,,---,0.00,VWS V13.01,2013-06-30 11:12:00,
2013-06-30 07:13:00,74.4,72.6,29.68,SSW,203,1.0,4.0,94,0.00,,---,0.00,VWS V13.01,2013-06-30 11:13:00,
2013-06-30 07:15:00,74.5,72.7,29.68,SSW,203,0.0,4.0,94,0.00,,---,0.00,VWS V13.01,2013-06-30 11:15:00,
2013-06-30 07:16:00,74.5,72.7,29.68,SSW,203,0.0,4.0,94,0.00,,---,0.00,VWS V13.01,2013-06-30 11:16:00,
2013-06-30 07:17:00,74.5,72.7,29.68,SSW,203,0.0,4.0,94,0.00,,---,0.00,VWS V13.01,2013-06-30 11:17:00,
2013-06-30 07:18:00,74.5,72.7,29.68,SSW,203,0.0,4.0,94,0.00,,---,0.00,VWS V13.01,2013-06-30 11:18:00,
2013-06-30 07:19:00,74.5,72.7,29.68,SSW,203,0.0,4.0,94,0.00,,---,0.00,VWS V13.01,2013-06-30 11:19:00,
2013-06-30 07:20:00,74.5,72.7,29.68,South,173,0.0,4.0,94,0.00,,---,0.00,VWS V13.01,2013-06-30 11:20:00,
2013-06-30 07:21:00,74.6,72.8,29.68,South,176,0.0,4.0,94,0.00,,---,0.00,VWS V13.01,2013-06-30 11:21:00,
2013-06-30 07:22:00,74.5,72.7,29.69,SSW,200,9.0,9.0,94,0.00,,---,0.00,VWS V13.01,2013-06-30 11:22:00,
2013-06-30 07:23:00,74.6,72.8,29.69,SSW,202,0.0,9.0,94,0.00,,---,0.00,VWS V13.01,2013-06-30 11:23:00,
2013-06-30 07:24:00,74.6,72.8,29.69,SSE,159,2.0,9.0,94,0.00,,---,0.00,VWS V13.01,2013-06-30 11:24:00,
2013-06-30 07:25:00,74.6,72.8,29.69,South,183,0.0,9.0,94,0.00,,---,0.00,VWS V13.01,2013-06-30 11:25:00,
2013-06-30 07:26:00,74.6,72.8,29.69,South,182,0.0,9.0,94,0.00,,---,0.00,VWS V13.01,2013-06-30 11:26:00,
2013-06-30 07:27:00,74.6,72.8,29.69,South,182,0.0,9.0,94,0.00,,---,0.00,VWS V13.01,2013-06-30 11:27:00,
2013-06-30 07:28:00,74.6,72.8,29.69,South,185,0.0,9.0,94,0.00,,---,0.00,VWS V13.01,2013-06-30 11:28:00,
2013-06-30 07:29:00,74.6,72.8,29.69,SW,236,0.0,9.0,94,0.00,,---,0.00,VWS V13.01,2013-06-30 11:29:00,
2013-06-30 07:30:00,74.6,72.8,29.69,South,176,2.0,9.0,94,0.00,,---,0.00,VWS V13.01,2013-06-30 11:30:00,
2013-06-30 07:31:00,74.6,72.8,29.69,SE,142,0.0,0.0,94,0.00,,---,0.00,VWS V13.01,2013-06-30 11:31:00,
2013-06-30 07:32:00,74.6,72.8,29.69,SW,218,0.0,6.0,94,0.00,,---,0.00,VWS V13.01,2013-06-30 11:32:00,
2013-06-30 07:33:00,74.6,72.8,29.69,East,92,0.0,6.0,94,0.00,,---,0.00,VWS V13.01,2013-06-30 11:33:00,
2013-06-30 07:34:00,74.6,72.8,29.69,SSE,153,0.0,6.0,94,0.00,,---,0.00,VWS V13.01,2013-06-30 11:34:00,
2013-06-30 07:36:00,74.6,72.8,29.69,South,169,0.0,6.0,94,0.00,,---,0.00,VWS V13.01,2013-06-30 11:36:00,
2013-06-30 07:37:00,74.7,72.9,29.69,SW,233,0.0,6.0,94,0.00,,---,0.00,VWS V13.01,2013-06-30 11:37:00,
2013-06-30 07:39:00,74.7,72.9,29.69,SSW,202,4.0,6.0,94,0.00,,---,0.00,VWS V13.01,2013-06-30 11:39:00,
2013-06-30 07:40:00,74.7,72.9,29.69,South,185,0.0,6.0,94,0.00,,---,0.00,VWS V13.01,2013-06-30 11:40:00,
2013-06-30 07:41:00,74.7,72.9,29.69,South,190,1.0,6.0,94,0.00,,---,0.00,VWS V13.01,2013-06-30 11:41:00,
2013-06-30 07:42:00,74.7,72.9,29.69,West,260,0.0,6.0,94,0.00,,---,0.00,VWS V13.01,2013-06-30 11:42:00,
2013-06-30 07:44:00,74.8,73.0,29.69,SSW,195,0.0,6.0,94,0.00,,---,0.00,VWS V13.01,2013-06-30 11:44:00,
2013-06-30 07:45:00,74.8,73.0,29.69,South,176,0.0,6.0,94,0.00,,---,0.00,VWS V13.01,2013-06-30 11:45:00,
2013-06-30 07:46:00,74.8,73.0,29.69,South,176,0.0,6.0,94,0.00,,---,0.00,VWS V13.01,2013-06-30 11:46:00,
2013-06-30 07:47:00,74.8,73.0,29.69,SSW,192,3.0,6.0,94,0.00,,---,0.00,VWS V13.01,2013-06-30 11:47:00,
2013-06-30 07:49:00,74.8,72.6,29.69,South,188,0.0,6.0,93,0.00,,---,0.00,VWS V13.01,2013-06-30 11:49:00,
2013-06-30 07:50:00,74.8,72.6,29.69,South,188,0.0,6.0,93,0.00,,---,0.00,VWS V13.01,2013-06-30 11:50:00,
2013-06-30 07:51:00,74.9,72.7,29.69,South,188,0.0,6.0,93,0.00,,---,0.00,VWS V13.01,2013-06-30 11:51:00,
2013-06-30 07:53:00,74.9,72.7,29.69,South,187,0.0,6.0,93,0.00,,---,0.00,VWS V13.01,2013-06-30 11:53:00,
2013-06-30 07:55:00,74.9,72.7,29.70,South,188,0.0,6.0,93,0.00,,---,0.00,VWS V13.01,2013-06-30 11:55:00,
2013-06-30 07:56:00,74.9,72.7,29.70,South,187,0.0,6.0,93,0.00,,---,0.00,VWS V13.01,2013-06-30 11:56:00,
2013-06-30 07:58:00,74.9,72.7,29.70,South,187,0.0,6.0,93,0.00,,---,0.00,VWS V13.01,2013-06-30 11:58:00,
2013-06-30 08:00:00,75.0,72.8,29.70,South,188,0.0,6.0,93,0.00,,---,0.00,VWS V13.01,2013-06-30 12:00:00,
2013-06-30 08:01:00,75.0,72.8,29.70,South,187,0.0,6.0,93,0.00,,---,0.00,VWS V13.01,2013-06-30 12:01:00,
2013-06-30 08:02:00,75.0,72.8,29.70,South,188,0.0,0.0,93,0.00,,---,0.00,VWS V13.01,2013-06-30 12:02:00,
2013-06-30 08:03:00,75.0,72.8,29.70,South,187,0.0,0.0,93,0.00,,---,0.00,VWS V13.01,2013-06-30 12:03:00,
2013-06-30 08:05:00,75.1,72.9,29.70,South,188,0.0,0.0,93,0.00,,---,0.00,VWS V13.01,2013-06-30 12:05:00,
2013-06-30 08:06:00,75.2,73.0,29.70,South,188,0.0,1.0,93,0.00,,---,0.00,VWS V13.01,2013-06-30 12:06:00,
2013-06-30 08:07:00,75.2,73.0,29.70,South,188,0.0,1.0,93,0.00,,---,0.00,VWS V13.01,2013-06-30 12:07:00,
2013-06-30 08:08:00,75.2,73.0,29.70,South,188,0.0,1.0,93,0.00,,---,0.00,VWS V13.01,2013-06-30 12:08:00,
2013-06-30 08:10:00,75.4,73.2,29.70,South,188,0.0,1.0,93,0.00,,---,0.00,VWS V13.01,2013-06-30 12:10:00,
2013-06-30 08:11:00,75.5,73.3,29.70,SW,221,4.0,9.0,93,0.00,,---,0.00,VWS V13.01,2013-06-30 12:11:00,
2013-06-30 08:12:00,75.5,73.3,29.70,SSW,206,0.0,9.0,93,0.00,,---,0.00,VWS V13.01,2013-06-30 12:12:00,
2013-06-30 08:13:00,75.5,73.3,29.70,SW,218,0.0,9.0,93,0.00,,---,0.00,VWS V13.01,2013-06-30 12:13:00,
2013-06-30 08:15:00,75.7,73.5,29.70,SSW,209,0.0,9.0,93,0.00,,---,0.00,VWS V13.01,2013-06-30 12:15:00,
2013-06-30 08:16:00,75.7,73.5,29.70,SW,225,1.0,9.0,93,0.00,,---,0.00,VWS V13.01,2013-06-30 12:16:00,
2013-06-30 08:17:00,75.7,73.5,29.70,SW,225,4.0,9.0,93,0.00,,---,0.00,VWS V13.01,2013-06-30 12:17:00,
2013-06-30 08:18:00,75.8,73.6,29.70,SSE,167,0.0,9.0,93,0.00,,---,0.00,VWS V13.01,2013-06-30 12:18:00,
2013-06-30 08:20:00,75.9,73.4,29.70,South,187,5.0,10.0,92,0.00,,---,0.00,VWS V13.01,2013-06-30 12:20:00,
2013-06-30 08:21:00,75.9,73.4,29.71,SSE,165,2.0,10.0,92,0.00,,---,0.00,VWS V13.01,2013-06-30 12:21:00,
2013-06-30 08:22:00,75.9,73.1,29.71,SSW,204,0.0,10.0,91,0.00,,---,0.00,VWS V13.01,2013-06-30 12:22:00,
2013-06-30 08:23:00,76.0,73.2,29.70,South,173,4.0,10.0,91,0.00,,---,0.00,VWS V13.01,2013-06-30 12:23:00,
2013-06-30 08:25:00,76.1,73.3,29.70,SSE,165,0.0,10.0,91,0.00,,---,0.00,VWS V13.01,2013-06-30 12:25:00,
2013-06-30 08:26:00,76.1,73.3,29.70,SSE,166,0.0,10.0,91,0.00,,---,0.00,VWS V13.01,2013-06-30 12:26:00,
2013-06-30 08:27:00,76.2,73.1,29.70,SSE,165,0.0,10.0,90,0.00,,---,0.00,VWS V13.01,2013-06-30 12:27:00,
2013-06-30 08:28:00,76.2,73.1,29.70,SSE,166,0.0,10.0,90,0.00,,---,0.00,VWS V13.01,2013-06-30 12:28:00,
2013-06-30 08:31:00,76.2,73.1,29.70,SSE,167,0.0,10.0,90,0.00,,---,0.00,VWS V13.01,2013-06-30 12:31:00,
2013-06-30 08:32:00,76.3,73.2,29.70,SSW,205,5.0,5.0,90,0.00,,---,0.00,VWS V13.01,2013-06-30 12:32:00,
2013-06-30 08:33:00,76.3,73.2,29.70,WSW,251,5.0,6.0,90,0.00,,---,0.00,VWS V13.01,2013-06-30 12:33:00,
2013-06-30 08:36:00,76.4,72.9,29.70,SW,215,0.0,6.0,89,0.00,,---,0.00,VWS V13.01,2013-06-30 12:36:00,
2013-06-30 08:37:00,76.4,72.9,29.70,South,185,0.0,6.0,89,0.00,,---,0.00,VWS V13.01,2013-06-30 12:37:00,
2013-06-30 08:38:00,76.4,72.9,29.70,South,184,0.0,6.0,89,0.00,,---,0.00,VWS V13.01,2013-06-30 12:38:00,
2013-06-30 08:41:00,76.6,73.1,29.70,SW,224,0.0,6.0,89,0.00,,---,0.00,VWS V13.01,2013-06-30 12:41:00,
2013-06-30 08:42:00,76.7,73.2,29.70,SW,230,0.0,7.0,89,0.00,,---,0.00,VWS V13.01,2013-06-30 12:42:00,
2013-06-30 08:43:00,76.7,73.2,29.70,SW,231,0.0,7.0,89,0.00,,---,0.00,VWS V13.01,2013-06-30 12:43:00,
2013-06-30 08:46:00,76.9,73.1,29.70,SSW,200,2.0,7.0,88,0.00,,---,0.00,VWS V13.01,2013-06-30 12:46:00,
2013-06-30 08:47:00,76.9,73.1,29.70,South,182,4.0,7.0,88,0.00,,---,0.00,VWS V13.01,2013-06-30 12:47:00,
2013-06-30 08:48:00,77.0,73.2,29.70,SW,230,1.0,7.0,88,0.00,,---,0.00,VWS V13.01,2013-06-30 12:48:00,
2013-06-30 08:51:00,77.2,73.0,29.70,SSW,210,1.0,7.0,87,0.00,,---,0.00,VWS V13.01,2013-06-30 12:51:00,
2013-06-30 08:53:00,77.2,72.7,29.70,South,182,0.0,7.0,86,0.00,,---,0.00,VWS V13.01,2013-06-30 12:53:00,
2013-06-30 08:57:00,77.4,72.9,29.70,South,176,0.0,7.0,86,0.00,,---,0.00,VWS V13.01,2013-06-30 12:57:00,
2013-06-30 08:58:00,77.5,73.0,29.70,South,177,0.0,7.0,86,0.00,,---,0.00,VWS V13.01,2013-06-30 12:58:00,
2013-06-30 08:59:00,77.5,73.0,29.71,South,176,0.0,7.0,86,0.00,,---,0.00,VWS V13.01,2013-06-30 12:59:00,
2013-06-30 09:02:00,77.6,72.7,29.70,SSW,213,0.0,4.0,85,0.00,,---,0.00,VWS V13.01,2013-06-30 13:02:00,
2013-06-30 09:03:00,77.7,72.8,29.70,SSW,194,3.0,4.0,85,0.00,,---,0.00,VWS V13.01,2013-06-30 13:03:00,
2013-06-30 09:04:00,77.7,72.8,29.70,SSW,205,0.0,4.0,85,0.00,,---,0.00,VWS V13.01,2013-06-30 13:04:00,
2013-06-30 09:07:00,77.9,73.0,29.70,SW,219,3.0,4.0,85,0.00,,---,0.00,VWS V13.01,2013-06-30 13:07:00,
2013-06-30 09:08:00,77.9,73.0,29.70,SSW,210,0.0,4.0,85,0.00,,---,0.00,VWS V13.01,2013-06-30 13:08:00,
2013-06-30 09:09:00,77.9,73.0,29.70,SSW,211,4.0,4.0,85,0.00,,---,0.00,VWS V13.01,2013-06-30 13:09:00,
2013-06-30 09:13:00,78.1,72.9,29.70,South,190,1.0,9.0,84,0.00,,---,0.00,VWS V13.01,2013-06-30 13:13:00,
2013-06-30 09:14:00,78.2,73.0,29.70,South,169,0.0,9.0,84,0.00,,---,0.00,VWS V13.01,2013-06-30 13:14:00,
2013-06-30 09:15:00,78.2,72.6,29.70,South,169,0.0,9.0,83,0.00,,---,0.00,VWS V13.01,2013-06-30 13:15:00,
2013-06-30 09:18:00,78.3,72.7,29.70,SSE,165,0.0,9.0,83,0.00,,---,0.00,VWS V13.01,2013-06-30 13:18:00,
2013-06-30 09:19:00,78.3,72.7,29.71,SSE,165,0.0,9.0,83,0.00,,---,0.00,VWS V13.01,2013-06-30 13:19:00,
2013-06-30 09:20:00,78.4,73.2,29.70,SSW,192,3.0,9.0,84,0.00,,---,0.00,VWS V13.01,2013-06-30 13:20:00,
2013-06-30 09:23:00,78.4,72.8,29.71,SSE,160,0.0,9.0,83,0.00,,---,0.00,VWS V13.01,2013-06-30 13:23:00,
2013-06-30 09:24:00,78.5,72.9,29.71,WSW,246,4.0,9.0,83,0.00,,---,0.00,VWS V13.01,2013-06-30 13:24:00,
2013-06-30 09:25:00,78.5,72.9,29.71,SW,220,0.0,9.0,83,0.00,,---,0.00,VWS V13.01,2013-06-30 13:25:00,
2013-06-30 09:28:00,78.5,72.6,29.71,WSW,249,2.0,10.0,82,0.00,,---,0.00,VWS V13.01,2013-06-30 13:28:00,
2013-06-30 09:29:00,78.5,72.6,29.71,WSW,248,0.0,10.0,82,0.00,,---,0.00,VWS V13.01,2013-06-30 13:29:00,
2013-06-30 09:30:00,78.5,72.6,29.71,WSW,248,0.0,10.0,82,0.00,,---,0.00,VWS V13.01,2013-06-30 13:30:00,
2013-06-30 09:33:00,78.5,72.6,29.71,South,171,0.0,4.0,82,0.00,,---,0.00,VWS V13.01,2013-06-30 13:33:00,
2013-06-30 09:34:00,78.5,72.6,29.71,South,172,0.0,4.0,82,0.00,,---,0.00,VWS V13.01,2013-06-30 13:34:00,
2013-06-30 09:35:00,78.5,72.6,29.71,South,172,0.0,4.0,82,0.00,,---,0.00,VWS V13.01,2013-06-30 13:35:00,
2013-06-30 09:38:00,78.5,72.6,29.71,South,172,0.0,4.0,82,0.00,,---,0.00,VWS V13.01,2013-06-30 13:38:00,
2013-06-30 09:39:00,78.5,72.6,29.71,South,188,2.0,4.0,82,0.00,,---,0.00,VWS V13.01,2013-06-30 13:39:00,
2013-06-30 09:40:00,78.5,72.6,29.71,WSW,257,0.0,4.0,82,0.00,,---,0.00,VWS V13.01,2013-06-30 13:40:00,
2013-06-30 09:44:00,78.5,72.6,29.70,WSW,256,0.0,4.0,82,0.00,,---,0.00,VWS V13.01,2013-06-30 13:44:00,
2013-06-30 09:45:00,78.5,72.6,29.70,SSE,153,0.0,5.0,82,0.00,,---,0.00,VWS V13.01,2013-06-30 13:45:00,
2013-06-30 09:49:00,78.5,72.9,29.71,SSW,213,0.0,5.0,83,0.00,,---,0.00,VWS V13.01,2013-06-30 13:49:00,
2013-06-30 09:50:00,78.5,72.6,29.70,SW,218,0.0,5.0,82,0.00,,---,0.00,VWS V13.01,2013-06-30 13:50:00,
2013-06-30 09:54:00,78.5,72.6,29.70,SW,218,0.0,5.0,82,0.00,,---,0.00,VWS V13.01,2013-06-30 13:54:00,
2013-06-30 09:55:00,78.5,72.6,29.70,SW,221,5.0,6.0,82,0.00,,---,0.00,VWS V13.01,2013-06-30 13:55:00,
2013-06-30 09:56:00,78.5,72.6,29.70,SW,226,6.0,7.0,82,0.00,,---,0.00,VWS V13.01,2013-06-30 13:56:00,
2013-06-30 09:59:00,78.5,72.6,29.70,SSW,196,1.0,7.0,82,0.00,,---,0.00,VWS V13.01,2013-06-30 13:59:00,
2013-06-30 10:01:00,78.5,72.6,29.71,SSW,196,0.0,7.0,82,0.00,,---,0.00,VWS V13.01,2013-06-30 14:01:00,
2013-06-30 10:04:00,78.5,72.6,29.71,SSW,211,0.0,5.0,82,0.00,,---,0.00,VWS V13.01,2013-06-30 14:04:00,
2013-06-30 10:05:00,78.6,72.7,29.70,SSW,211,0.0,5.0,82,0.00,,---,0.00,VWS V13.01,2013-06-30 14:05:00,
2013-06-30 10:06:00,78.6,72.7,29.70,SSW,211,0.0,5.0,82,0.00,,---,0.00,VWS V13.01,2013-06-30 14:06:00,
2013-06-30 10:09:00,78.6,72.7,29.70,SW,215,0.0,5.0,82,0.00,,---,0.00,VWS V13.01,2013-06-30 14:09:00,
2013-06-30 10:10:00,78.6,72.7,29.70,SSE,157,5.0,5.0,82,0.00,,---,0.00,VWS V13.01,2013-06-30 14:10:00,
2013-06-30 10:11:00,78.6,72.7,29.70,South,190,3.0,5.0,82,0.00,,---,0.00,VWS V13.01,2013-06-30 14:11:00,
2013-06-30 10:14:00,78.6,73.0,29.70,South,189,0.0,5.0,83,0.00,,---,0.00,VWS V13.01,2013-06-30 14:14:00,
2013-06-30 10:15:00,78.7,73.1,29.70,South,188,0.0,5.0,83,0.00,,---,0.00,VWS V13.01,2013-06-30 14:15:00,
2013-06-30 10:16:00,78.7,73.1,29.70,South,188,0.0,5.0,83,0.00,,---,0.00,VWS V13.01,2013-06-30 14:16:00,
2013-06-30 10:19:00,78.7,72.8,29.70,SW,226,1.0,5.0,82,0.00,,---,0.00,VWS V13.01,2013-06-30 14:19:00,
2013-06-30 10:20:00,78.7,73.1,29.70,SE,140,0.0,5.0,83,0.00,,---,0.00,VWS V13.01,2013-06-30 14:20:00,
2013-06-30 10:21:00,78.6,73.0,29.70,SSE,160,0.0,5.0,83,0.00,,---,0.00,VWS V13.01,2013-06-30 14:21:00,
2013-06-30 10:22:00,78.7,73.1,29.70,SSE,167,0.0,5.0,83,0.00,,---,0.00,VWS V13.01,2013-06-30 14:22:00,
2013-06-30 10:24:00,78.7,73.1,29.70,ESE,122,0.0,5.0,83,0.00,,---,0.00,VWS V13.01,2013-06-30 14:24:00,
2013-06-30 10:25:00,78.7,73.1,29.70,ESE,122,0.0,5.0,83,0.00,,---,0.00,VWS V13.01,2013-06-30 14:25:00,
2013-06-30 10:26:00,78.7,73.1,29.70,SW,226,2.0,5.0,83,0.00,,---,0.00,VWS V13.01,2013-06-30 14:26:00,
2013-06-30 10:27:00,78.7,73.1,29.70,SW,229,0.0,5.0,83,0.00,,---,0.00,VWS V13.01,2013-06-30 14:27:00,
2013-06-30 10:29:00,78.7,73.1,29.70,SSW,208,4.0,5.0,83,0.00,,---,0.00,VWS V13.01,2013-06-30 14:29:00,
2013-06-30 10:30:00,78.7,73.1,29.70,SSW,213,0.0,5.0,83,0.00,,---,0.00,VWS V13.01,2013-06-30 14:30:00,
2013-06-30 10:31:00,78.7,72.8,29.70,South,190,1.0,5.0,82,0.00,,---,0.00,VWS V13.01,2013-06-30 14:31:00,
2013-06-30 10:32:00,78.7,72.8,29.70,South,188,0.0,1.0,82,0.00,,---,0.00,VWS V13.01,2013-06-30 14:32:00,
2013-06-30 10:35:00,78.7,72.8,29.70,SSW,211,2.0,3.0,82,0.00,,---,0.00,VWS V13.01,2013-06-30 14:35:00,
2013-06-30 10:36:00,78.7,72.8,29.70,SSW,205,0.0,3.0,82,0.00,,---,0.00,VWS V13.01,2013-06-30 14:36:00,
2013-06-30 10:37:00,78.7,72.8,29.71,SSW,205,0.0,3.0,82,0.00,,---,0.00,VWS V13.01,2013-06-30 14:37:00,
2013-06-30 10:40:00,78.7,72.8,29.70,SSW,204,0.0,3.0,82,0.00,,---,0.00,VWS V13.01,2013-06-30 14:40:00,
2013-06-30 10:41:00,78.7,72.8,29.70,South,177,0.0,3.0,82,0.00,,---,0.00,VWS V13.01,2013-06-30 14:41:00,
2013-06-30 10:42:00,78.7,73.1,29.70,South,187,0.0,3.0,83,0.00,,---,0.00,VWS V13.01,2013-06-30 14:42:00,
2013-06-30 10:45:00,78.8,72.8,29.71,SSW,198,0.0,3.0,82,0.00,,---,0.00,VWS V13.01,2013-06-30 14:45:00,
2013-06-30 10:46:00,78.9,73.3,29.70,SSW,198,0.0,3.0,83,0.00,,---,0.00,VWS V13.01,2013-06-30 14:46:00,
2013-06-30 10:48:00,78.9,73.3,29.70,SSE,150,3.0,3.0,83,0.00,,---,0.00,VWS V13.01,2013-06-30 14:48:00,
2013-06-30 10:50:00,79.0,73.4,29.71,SSW,200,3.0,4.0,83,0.00,,---,0.00,VWS V13.01,2013-06-30 14:50:00,
2013-06-30 10:51:00,79.0,73.4,29.71,South,186,0.0,4.0,83,0.00,,---,0.00,VWS V13.01,2013-06-30 14:51:00,
2013-06-30 10:52:00,79.0,73.0,29.71,South,186,0.0,4.0,82,0.00,,---,0.00,VWS V13.01,2013-06-30 14:52:00,
2013-06-30 10:53:00,79.1,73.5,29.71,South,191,0.0,4.0,83,0.00,,---,0.00,VWS V13.01,2013-06-30 14:53:00,
2013-06-30 10:55:00,79.1,73.5,29.71,South,186,0.0,4.0,83,0.00,,---,0.00,VWS V13.01,2013-06-30 14:55:00,
2013-06-30 10:56:00,79.1,73.5,29.71,South,173,2.0,4.0,83,0.00,,---,0.00,VWS V13.01,2013-06-30 14:56:00,
2013-06-30 10:57:00,79.1,73.5,29.71,SSE,163,0.0,4.0,83,0.00,,---,0.00,VWS V13.01,2013-06-30 14:57:00,
2013-06-30 10:58:00,79.2,73.6,29.71,SSE,163,0.0,4.0,83,0.00,,---,0.00,VWS V13.01,2013-06-30 14:58:00,
2013-06-30 11:00:00,79.2,73.9,29.71,SSE,163,0.0,4.0,84,0.00,,---,0.00,VWS V13.01,2013-06-30 15:00:00,
2013-06-30 11:01:00,79.3,74.1,29.71,SSW,206,0.0,4.0,84,0.00,,---,0.00,VWS V13.01,2013-06-30 15:01:00,
2013-06-30 11:02:00,79.3,74.1,29.71,SSW,207,0.0,1.0,84,0.00,,---,0.00,VWS V13.01,2013-06-30 15:02:00,
2013-06-30 11:03:00,79.3,74.1,29.71,SSW,207,0.0,1.0,84,0.00,,---,0.00,VWS V13.01,2013-06-30 15:03:00,
2013-06-30 11:05:00,79.3,74.1,29.71,SSW,209,0.0,5.0,84,0.00,,---,0.00,VWS V13.01,2013-06-30 15:05:00,
2013-06-30 11:06:00,79.3,74.1,29.71,SSW,209,0.0,5.0,84,0.00,,---,0.00,VWS V13.01,2013-06-30 15:06:00,
2013-06-30 11:07:00,79.3,74.1,29.71,SSW,209,0.0,5.0,84,0.00,,---,0.00,VWS V13.01,2013-06-30 15:07:00,
2013-06-30 11:08:00,79.4,74.2,29.71,SSE,158,0.0,5.0,84,0.00,,---,0.00,VWS V13.01,2013-06-30 15:08:00,
2013-06-30 11:10:00,79.4,74.2,29.71,SSE,158,0.0,5.0,84,0.00,,---,0.00,VWS V13.01,2013-06-30 15:10:00,
2013-06-30 11:11:00,79.4,74.2,29.71,SSE,165,0.0,5.0,84,0.00,,---,0.00,VWS V13.01,2013-06-30 15:11:00,
2013-06-30 11:12:00,79.4,74.2,29.71,SSE,167,0.0,5.0,84,0.00,,---,0.00,VWS V13.01,2013-06-30 15:12:00,
2013-06-30 11:13:00,79.4,74.2,29.71,SW,221,3.0,5.0,84,0.00,,---,0.00,VWS V13.01,2013-06-30 15:13:00,
2013-06-30 11:15:00,79.5,74.2,29.71,South,184,0.0,5.0,84,0.00,,---,0.00,VWS V13.01,2013-06-30 15:15:00,
2013-06-30 11:16:00,79.5,74.2,29.71,South,184,0.0,5.0,84,0.00,,---,0.00,VWS V13.01,2013-06-30 15:16:00,
2013-06-30 11:17:00,79.5,74.2,29.71,South,184,0.0,5.0,84,0.00,,---,0.00,VWS V13.01,2013-06-30 15:17:00,
2013-06-30 11:19:00,79.6,74.7,29.71,South,184,0.0,5.0,85,0.00,,---,0.00,VWS V13.01,2013-06-30 15:19:00,
2013-06-30 11:21:00,79.7,74.8,29.71,SSE,154,1.0,5.0,85,0.00,,---,0.00,VWS V13.01,2013-06-30 15:21:00,
2013-06-30 11:22:00,79.8,74.5,29.71,SSE,156,0.0,5.0,84,0.00,,---,0.00,VWS V13.01,2013-06-30 15:22:00,
2013-06-30 11:24:00,80.0,75.1,29.71,SSE,159,0.0,5.0,85,0.00,,---,0.00,VWS V13.01,2013-06-30 15:24:00,
2013-06-30 11:26:00,80.5,75.6,29.71,SW,226,0.0,5.0,85,0.00,,---,0.00,VWS V13.01,2013-06-30 15:26:00,
2013-06-30 11:27:00,80.5,75.6,29.71,SW,226,0.0,5.0,85,0.00,,---,0.00,VWS V13.01,2013-06-30 15:27:00,
2013-06-30 11:29:00,80.7,75.4,29.71,SW,227,0.0,5.0,84,0.00,,---,0.00,VWS V13.01,2013-06-30 15:29:00,
2013-06-30 11:32:00,80.9,74.9,29.71,SSE,156,0.0,0.0,82,0.00,,---,0.00,VWS V13.01,2013-06-30 15:32:00,
2013-06-30 11:34:00,81.1,75.1,29.72,SSE,159,0.0,0.0,82,0.00,,---,0.00,VWS V13.01,2013-06-30 15:34:00,
2013-06-30 11:37:00,81.4,75.0,29.72,SW,229,1.0,6.0,81,0.00,,---,0.00,VWS V13.01,2013-06-30 15:37:00,
2013-06-30 11:39:00,81.6,75.2,29.72,SSW,210,0.0,6.0,81,0.00,,---,0.00,VWS V13.01,2013-06-30 15:39:00,
2013-06-30 11:42:00,82.0,75.2,29.72,SW,214,0.0,6.0,80,0.00,,---,0.00,VWS V13.01,2013-06-30 15:42:00,
2013-06-30 11:44:00,82.2,75.4,29.72,SSE,157,3.0,7.0,80,0.00,,---,0.00,VWS V13.01,2013-06-30 15:44:00,
2013-06-30 11:47:00,82.6,75.1,29.71,SSE,155,0.0,7.0,78,0.00,,---,0.00,VWS V13.01,2013-06-30 15:47:00,
2013-06-30 11:49:00,82.9,74.9,29.71,SSE,153,0.0,7.0,77,0.00,,---,0.00,VWS V13.01,2013-06-30 15:49:00,
2013-06-30 11:52:00,83.4,75.4,29.71,East,94,0.0,7.0,77,0.00,,---,0.00,VWS V13.01,2013-06-30 15:52:00,
2013-06-30 11:53:00,83.5,75.5,29.71,East,92,0.0,7.0,77,0.00,,---,0.00,VWS V13.01,2013-06-30 15:53:00,
2013-06-30 11:54:00,83.7,76.1,29.71,WNW,296,0.0,7.0,78,0.00,,---,0.00,VWS V13.01,2013-06-30 15:54:00,
2013-06-30 11:57:00,84.1,75.7,29.71,WNW,284,0.0,7.0,76,0.00,,---,0.00,VWS V13.01,2013-06-30 15:57:00,
2013-06-30 11:58:00,84.2,75.4,29.71,West,270,0.0,7.0,75,0.00,,---,0.00,VWS V13.01,2013-06-30 15:58:00,
2013-06-30 11:59:00,84.2,75.0,29.71,SW,219,0.0,7.0,74,0.00,,---,0.00,VWS V13.01,2013-06-30 15:59:00,
2013-06-30 12:02:00,84.3,74.7,29.71,SSW,213,0.0,1.0,73,0.00,,---,0.00,VWS V13.01,2013-06-30 16:02:00,
2013-06-30 12:03:00,84.3,74.7,29.71,SSW,213,0.0,1.0,73,0.00,,---,0.00,VWS V13.01,2013-06-30 16:03:00,
2013-06-30 12:04:00,84.3,75.5,29.70,SSW,213,0.0,1.0,75,0.00,,---,0.00,VWS V13.01,2013-06-30 16:04:00,
2013-06-30 12:07:00,84.4,75.2,29.70,SSW,213,4.0,4.0,74,0.00,,---,0.00,VWS V13.01,2013-06-30 16:07:00,
2013-06-30 12:08:00,84.4,75.2,29.70,WSW,239,3.0,4.0,74,0.00,,---,0.00,VWS V13.01,2013-06-30 16:08:00,
2013-06-30 12:09:00,84.5,75.3,29.70,WSW,239,0.0,4.0,74,0.00,,---,0.00,VWS V13.01,2013-06-30 16:09:00,
2013-06-30 12:12:00,84.5,75.3,29.70,WSW,240,0.0,4.0,74,0.00,,---,0.00,VWS V13.01,2013-06-30 16:12:00,
2013-06-30 12:13:00,84.6,75.4,29.70,WSW,240,0.0,4.0,74,0.00,,---,0.00,VWS V13.01,2013-06-30 16:13:00,
2013-06-30 12:14:00,84.6,75.4,29.70,SSE,168,0.0,4.0,74,0.00,,---,0.00,VWS V13.01,2013-06-30 16:14:00,
2013-06-30 12:18:00,84.7,75.5,29.71,South,190,0.0,5.0,74,0.00,,---,0.00,VWS V13.01,2013-06-30 16:18:00,
2013-06-30 12:19:00,84.8,75.6,29.71,SSE,153,0.0,5.0,74,0.00,,---,0.00,VWS V13.01,2013-06-30 16:19:00,
2013-06-30 12:23:00,85.2,75.6,29.70,SW,227,0.0,7.0,73,0.00,,---,0.00,VWS V13.01,2013-06-30 16:23:00,
2013-06-30 12:24:00,85.4,75.8,29.70,SW,227,0.0,7.0,73,0.00,,---,0.00,VWS V13.01,2013-06-30 16:24:00,
2013-06-30 12:28:00,85.7,76.1,29.70,SE,143,1.0,7.0,73,0.00,,---,0.00,VWS V13.01,2013-06-30 16:28:00,
2013-06-30 12:29:00,85.9,75.8,29.70,South,171,0.0,7.0,72,0.00,,---,0.00,VWS V13.01,2013-06-30 16:29:00,
2013-06-30 12:33:00,86.2,75.3,29.70,SSE,157,0.0,6.0,70,0.00,,---,0.00,VWS V13.01,2013-06-30 16:33:00,
2013-06-30 12:34:00,86.3,76.2,29.70,South,176,3.0,6.0,72,0.00,,---,0.00,VWS V13.01,2013-06-30 16:34:00,
2013-06-30 12:36:00,86.4,75.5,29.70,South,179,0.0,6.0,70,0.00,,---,0.00,VWS V13.01,2013-06-30 16:36:00,
2013-06-30 12:38:00,86.6,75.7,29.70,WNW,290,2.0,6.0,70,0.00,,---,0.00,VWS V13.01,2013-06-30 16:38:00,
2013-06-30 12:39:00,86.6,75.7,29.70,WNW,289,0.0,6.0,70,0.00,,---,0.00,VWS V13.01,2013-06-30 16:39:00,
2013-06-30 12:40:00,86.6,75.2,29.70,WNW,289,0.0,6.0,69,0.00,,---,0.00,VWS V13.01,2013-06-30 16:40:00,
2013-06-30 12:41:00,86.7,75.3,29.70,WNW,289,0.0,6.0,69,0.00,,---,0.00,VWS V13.01,2013-06-30 16:41:00,
2013-06-30 12:43:00,86.9,75.5,29.70,WSW,257,0.0,6.0,69,0.00,,---,0.00,VWS V13.01,2013-06-30 16:43:00,
2013-06-30 12:44:00,87.0,75.6,29.70,SSE,166,2.0,6.0,69,0.00,,---,0.00,VWS V13.01,2013-06-30 16:44:00,
2013-06-30 12:45:00,87.1,75.7,29.70,South,179,0.0,6.0,69,0.00,,---,0.00,VWS V13.01,2013-06-30 16:45:00,
2013-06-30 12:46:00,87.1,75.7,29.70,South,182,0.0,6.0,69,0.00,,---,0.00,VWS V13.01,2013-06-30 16:46:00,
2013-06-30 12:48:00,87.3,75.4,29.69,WSW,247,0.0,6.0,68,0.00,,---,0.00,VWS V13.01,2013-06-30 16:48:00,
2013-06-30 12:49:00,87.3,75.4,29.69,WSW,246,0.0,6.0,68,0.00,,---,0.00,VWS V13.01,2013-06-30 16:49:00,
2013-06-30 12:50:00,87.4,76.4,29.69,SSW,200,3.0,6.0,70,0.00,,---,0.00,VWS V13.01,2013-06-30 16:50:00,
2013-06-30 12:51:00,87.6,76.2,29.69,SW,234,2.0,7.0,69,0.00,,---,0.00,VWS V13.01,2013-06-30 16:51:00,
2013-06-30 12:54:00,87.8,75.0,29.69,SW,230,0.0,7.0,66,0.00,,---,0.00,VWS V13.01,2013-06-30 16:54:00,
2013-06-30 12:55:00,87.9,74.2,29.69,SW,232,0.0,7.0,64,0.00,,---,0.00,VWS V13.01,2013-06-30 16:55:00,
2013-06-30 12:56:00,88.0,74.8,29.69,SW,232,1.0,7.0,65,0.00,,---,0.00,VWS V13.01,2013-06-30 16:56:00,
2013-06-30 12:59:00,88.2,75.0,29.69,SW,229,2.0,7.0,65,0.00,,---,0.00,VWS V13.01,2013-06-30 16:59:00,
2013-06-30 13:00:00,88.4,75.6,29.69,SW,229,0.0,7.0,66,0.00,,---,0.00,VWS V13.01,2013-06-30 17:00:00,
2013-06-30 13:01:00,88.4,75.6,29.69,ESE,116,2.0,7.0,66,0.00,,---,0.00,VWS V13.01,2013-06-30 17:01:00,
2013-06-30 13:04:00,88.6,75.3,29.69,SW,214,0.0,7.0,65,0.00,,---,0.00,VWS V13.01,2013-06-30 17:04:00,
2013-06-30 13:05:00,88.5,74.3,29.69,SW,214,0.0,7.0,63,0.00,,---,0.00,VWS V13.01,2013-06-30 17:05:00,
2013-06-30 13:06:00,88.6,74.4,29.69,SW,214,0.0,7.0,63,0.00,,---,0.00,VWS V13.01,2013-06-30 17:06:00,
2013-06-30 13:09:00,88.6,74.9,29.69,SSW,210,5.0,7.0,64,0.00,,---,0.00,VWS V13.01,2013-06-30 17:09:00,
2013-06-30 13:11:00,88.5,74.8,29.69,South,182,0.0,7.0,64,0.00,,---,0.00,VWS V13.01,2013-06-30 17:11:00,
2013-06-30 13:14:00,88.4,75.1,29.69,SW,224,0.0,7.0,65,0.00,,---,0.00,VWS V13.01,2013-06-30 17:14:00,
2013-06-30 13:16:00,88.4,76.1,29.69,SW,215,0.0,7.0,67,0.00,,---,0.00,VWS V13.01,2013-06-30 17:16:00,
2013-06-30 13:19:00,88.3,76.0,29.69,SW,227,4.0,7.0,67,0.00,,---,0.00,VWS V13.01,2013-06-30 17:19:00,
2013-06-30 13:21:00,88.4,75.1,29.69,West,277,0.0,7.0,65,0.00,,---,0.00,VWS V13.01,2013-06-30 17:21:00,
2013-06-30 13:24:00,88.4,75.6,29.68,SSE,163,3.0,8.0,66,0.00,,---,0.00,VWS V13.01,2013-06-30 17:24:00,
2013-06-30 13:25:00,88.5,75.7,29.68,ESE,119,1.0,8.0,66,0.00,,---,0.00,VWS V13.01,2013-06-30 17:25:00,
2013-06-30 13:26:00,88.6,75.8,29.68,SE,136,0.0,8.0,66,0.00,,---,0.00,VWS V13.01,2013-06-30 17:26:00,
2013-06-30 13:29:00,88.8,75.5,29.68,South,173,0.0,8.0,65,0.00,,---,0.00,VWS V13.01,2013-06-30 17:29:00,
2013-06-30 13:30:00,88.8,75.5,29.68,South,173,1.0,8.0,65,0.00,,---,0.00,VWS V13.01,2013-06-30 17:30:00,
2013-06-30 13:31:00,88.9,76.1,29.68,WSW,238,1.0,8.0,66,0.00,,---,0.00,VWS V13.01,2013-06-30 17:31:00,
2013-06-30 13:32:00,88.9,76.1,29.69,SE,130,1.0,3.0,66,0.00,,---,0.00,VWS V13.01,2013-06-30 17:32:00,
2013-06-30 13:35:00,89.2,75.9,29.69,SSE,159,6.0,6.0,65,0.00,,---,0.00,VWS V13.01,2013-06-30 17:35:00,
2013-06-30 13:36:00,89.2,75.9,29.68,East,99,3.0,6.0,65,0.00,,---,0.00,VWS V13.01,2013-06-30 17:36:00,
2013-06-30 13:37:00,89.3,76.0,29.69,SE,140,0.0,6.0,65,0.00,,---,0.00,VWS V13.01,2013-06-30 17:37:00,
2013-06-30 13:41:00,89.3,75.1,29.68,SE,145,0.0,6.0,63,0.00,,---,0.00,VWS V13.01,2013-06-30 17:41:00,
2013-06-30 13:42:00,89.3,75.1,29.69,SE,146,0.0,6.0,63,0.00,,---,0.00,VWS V13.01,2013-06-30 17:42:00,
2013-06-30 13:46:00,89.2,75.0,29.69,SSW,202,0.0,6.0,63,0.00,,---,0.00,VWS V13.01,2013-06-30 17:46:00,
2013-06-30 13:47:00,89.2,75.0,29.69,SSW,202,0.0,6.0,63,0.00,,---,0.00,VWS V13.01,2013-06-30 17:47:00,
2013-06-30 13:48:00,89.2,75.4,29.69,SSE,168,5.0,6.0,64,0.00,,---,0.00,VWS V13.01,2013-06-30 17:48:00,
2013-06-30 13:51:00,89.1,75.8,29.69,SSW,202,0.0,6.0,65,0.00,,---,0.00,VWS V13.01,2013-06-30 17:51:00,
2013-06-30 13:52:00,89.1,75.8,29.69,SSE,165,2.0,6.0,65,0.00,,---,0.00,VWS V13.01,2013-06-30 17:52:00,
2013-06-30 13:53:00,89.0,74.8,29.69,SSW,194,1.0,6.0,63,0.00,,---,0.00,VWS V13.01,2013-06-30 17:53:00,
2013-06-30 13:56:00,88.8,74.6,29.69,SE,132,4.0,8.0,63,0.00,,---,0.00,VWS V13.01,2013-06-30 17:56:00,
2013-06-30 13:57:00,88.8,74.6,29.69,South,180,3.0,8.0,63,0.00,,---,0.00,VWS V13.01,2013-06-30 17:57:00,
2013-06-30 13:58:00,88.6,74.4,29.69,SSW,200,1.0,8.0,63,0.00,,---,0.00,VWS V13.01,2013-06-30 17:58:00,
2013-06-30 14:02:00,88.2,74.0,29.69,SSW,213,3.0,7.0,63,0.00,,---,0.00,VWS V13.01,2013-06-30 18:02:00,
2013-06-30 14:03:00,88.1,73.9,29.69,South,171,0.0,7.0,63,0.00,,---,0.00,VWS V13.01,2013-06-30 18:03:00,
2013-06-30 14:07:00,87.7,74.5,29.69,SW,219,6.0,7.0,65,0.00,,---,0.00,VWS V13.01,2013-06-30 18:07:00,
2013-06-30 14:08:00,87.6,74.4,29.69,South,182,0.0,7.0,65,0.00,,---,0.00,VWS V13.01,2013-06-30 18:08:00,
2013-06-30 14:12:00,87.1,74.4,29.68,SE,140,0.0,7.0,66,0.00,,---,0.00,VWS V13.01,2013-06-30 18:12:00,
2013-06-30 14:13:00,87.0,74.7,29.68,SE,140,0.0,7.0,67,0.00,,---,0.00,VWS V13.01,2013-06-30 18:13:00,
2013-06-30 14:17:00,86.5,75.1,29.68,East,94,0.0,10.0,69,0.00,,---,0.00,VWS V13.01,2013-06-30 18:17:00,
2013-06-30 14:18:00,86.4,75.5,29.68,ESE,103,0.0,10.0,70,0.00,,---,0.00,VWS V13.01,2013-06-30 18:18:00,
2013-06-30 14:22:00,86.0,75.5,29.68,SSE,148,9.0,12.0,71,0.00,,---,0.00,VWS V13.01,2013-06-30 18:22:00,
2013-06-30 14:23:00,85.9,75.4,29.68,South,169,4.0,12.0,71,0.00,,---,0.00,VWS V13.01,2013-06-30 18:23:00,
2013-06-30 14:27:00,85.3,75.2,29.68,SE,131,3.0,12.0,72,0.00,,---,0.00,VWS V13.01,2013-06-30 18:27:00,
2013-06-30 14:28:00,85.2,75.2,29.68,SE,134,0.0,12.0,72,0.00,,---,0.00,VWS V13.01,2013-06-30 18:28:00,
2013-06-30 14:32:00,84.8,75.2,29.68,SSW,198,0.0,6.0,73,0.00,,---,0.00,VWS V13.01,2013-06-30 18:32:00,
2013-06-30 14:33:00,84.7,75.1,29.68,SSW,198,0.0,6.0,73,0.00,,---,0.00,VWS V13.01,2013-06-30 18:33:00,
2013-06-30 14:34:00,84.7,75.1,29.68,SSW,198,0.0,6.0,73,0.00,,---,0.00,VWS V13.01,2013-06-30 18:34:00,
2013-06-30 14:37:00,84.4,74.8,29.68,SSE,168,1.0,7.0,73,0.00,,---,0.00,VWS V13.01,2013-06-30 18:37:00,
2013-06-30 14:38:00,84.4,75.2,29.68,SE,126,2.0,7.0,74,0.00,,---,0.00,VWS V13.01,2013-06-30 18:38:00,
2013-06-30 14:39:00,84.3,75.1,29.69,SE,129,0.0,7.0,74,0.00,,---,0.00,VWS V13.01,2013-06-30 18:39:00,
2013-06-30 14:43:00,84.0,74.8,29.68,SSE,163,1.0,7.0,74,0.00,,---,0.00,VWS V13.01,2013-06-30 18:43:00,
2013-06-30 14:44:00,83.9,75.1,29.69,SSE,164,0.0,7.0,75,0.00,,---,0.00,VWS V13.01,2013-06-30 18:44:00,
2013-06-30 14:48:00,83.7,75.3,29.68,SSW,199,0.0,9.0,76,0.00,,---,0.00,VWS V13.01,2013-06-30 18:48:00,
2013-06-30 14:49:00,83.7,75.3,29.68,SSE,163,0.0,9.0,76,0.00,,---,0.00,VWS V13.01,2013-06-30 18:49:00,
2013-06-30 14:53:00,83.4,74.7,29.68,SW,221,4.0,9.0,75,0.00,,---,0.00,VWS V13.01,2013-06-30 18:53:00,
2013-06-30 14:54:00,83.3,74.6,29.68,South,182,0.0,9.0,75,0.00,,---,0.00,VWS V13.01,2013-06-30 18:54:00,
2013-06-30 14:55:00,83.2,74.5,29.68,South,180,0.0,9.0,75,0.00,,---,0.00,VWS V13.01,2013-06-30 18:55:00,
2013-06-30 14:58:00,83.1,75.2,29.69,SW,232,0.0,9.0,77,0.00,,---,0.00,VWS V13.01,2013-06-30 18:58:00,
2013-06-30 14:59:00,83.1,75.2,29.69,South,190,9.0,9.0,77,0.00,,---,0.00,VWS V13.01,2013-06-30 18:59:00,
2013-06-30 15:00:00,83.0,75.1,29.69,South,188,0.0,9.0,77,0.00,,---,0.00,VWS V13.01,2013-06-30 19:00:00,
2013-06-30 15:03:00,82.7,74.8,29.69,SSE,167,4.0,4.0,77,0.00,,---,0.00,VWS V13.01,2013-06-30 19:03:00,
2013-06-30 15:04:00,82.7,74.8,29.69,SSE,159,1.0,6.0,77,0.00,,---,0.00,VWS V13.01,2013-06-30 19:04:00,
2013-06-30 15:05:00,82.7,74.8,29.69,SSW,199,2.0,6.0,77,0.00,,---,0.00,VWS V13.01,2013-06-30 19:05:00,
2013-06-30 15:08:00,82.4,74.9,29.69,South,179,0.0,6.0,78,0.00,,---,0.00,VWS V13.01,2013-06-30 19:08:00,
2013-06-30 15:09:00,82.4,74.9,29.69,South,184,1.0,6.0,78,0.00,,---,0.00,VWS V13.01,2013-06-30 19:09:00,
2013-06-30 15:10:00,82.3,74.8,29.69,SE,126,8.0,8.0,78,0.00,,---,0.00,VWS V13.01,2013-06-30 19:10:00,
2013-06-30 15:14:00,82.0,74.8,29.69,SW,227,0.0,8.0,79,0.00,,---,0.00,VWS V13.01,2013-06-30 19:14:00,
2013-06-30 15:15:00,82.0,75.2,29.69,SSW,207,0.0,8.0,80,0.00,,---,0.00,VWS V13.01,2013-06-30 19:15:00,
2013-06-30 15:19:00,81.8,75.4,29.69,South,187,5.0,11.0,81,0.00,,---,0.00,VWS V13.01,2013-06-30 19:19:00,
2013-06-30 15:20:00,81.6,75.2,29.69,SSW,200,0.0,11.0,81,0.01,,---,0.01,VWS V13.01,2013-06-30 19:20:00,
2013-06-30 15:24:00,81.3,75.3,29.69,SSW,207,2.0,11.0,82,0.01,,---,0.01,VWS V13.01,2013-06-30 19:24:00,
2013-06-30 15:25:00,81.1,75.1,29.70,South,171,0.0,11.0,82,0.01,,---,0.01,VWS V13.01,2013-06-30 19:25:00,
2013-06-30 15:29:00,80.7,75.1,29.70,SSW,202,0.0,11.0,83,0.01,,---,0.01,VWS V13.01,2013-06-30 19:29:00,
2013-06-30 15:31:00,80.5,74.9,29.70,SSW,196,0.0,11.0,83,0.02,,---,0.02,VWS V13.01,2013-06-30 19:31:00,
2013-06-30 15:34:00,80.2,74.6,29.70,SW,223,6.0,8.0,83,0.02,,---,0.02,VWS V13.01,2013-06-30 19:34:00,
2013-06-30 15:36:00,80.0,74.7,29.70,SSW,209,0.0,8.0,84,0.02,,---,0.02,VWS V13.01,2013-06-30 19:36:00,
2013-06-30 15:39:00,79.7,74.4,29.70,SSW,205,4.0,8.0,84,0.03,,---,0.03,VWS V13.01,2013-06-30 19:39:00,
2013-06-30 15:40:00,79.7,74.4,29.70,SSW,209,0.0,8.0,84,0.03,,---,0.03,VWS V13.01,2013-06-30 19:40:00,
2013-06-30 15:41:00,79.5,74.2,29.70,South,169,0.0,8.0,84,0.03,,---,0.03,VWS V13.01,2013-06-30 19:41:00,
2013-06-30 15:44:00,79.3,74.4,29.70,SSE,164,1.0,8.0,85,0.03,,---,0.03,VWS V13.01,2013-06-30 19:44:00,
2013-06-30 15:45:00,79.2,74.3,29.70,South,190,0.0,8.0,85,0.03,,---,0.03,VWS V13.01,2013-06-30 19:45:00,
2013-06-30 15:47:00,79.1,74.2,29.70,SSE,153,0.0,8.0,85,0.03,,---,0.03,VWS V13.01,2013-06-30 19:47:00,
2013-06-30 15:49:00,78.8,73.9,29.70,South,172,0.0,10.0,85,0.03,,---,0.03,VWS V13.01,2013-06-30 19:49:00,
2013-06-30 15:50:00,78.7,73.8,29.70,SW,227,6.0,10.0,85,0.03,,---,0.03,VWS V13.01,2013-06-30 19:50:00,
2013-06-30 15:52:00,78.6,73.7,29.70,South,182,0.0,10.0,85,0.03,,---,0.03,VWS V13.01,2013-06-30 19:52:00,
2013-06-30 15:54:00,78.2,73.0,29.70,South,169,0.0,10.0,84,0.03,,---,0.03,VWS V13.01,2013-06-30 19:54:00,
2013-06-30 15:55:00,78.1,72.9,29.70,South,171,0.0,10.0,84,0.03,,---,0.03,VWS V13.01,2013-06-30 19:55:00,
2013-06-30 15:56:00,78.1,72.9,29.70,South,171,0.0,10.0,84,0.03,,---,0.03,VWS V13.01,2013-06-30 19:56:00,
2013-06-30 15:57:00,78.0,73.1,29.70,South,171,0.0,10.0,85,0.03,,---,0.03,VWS V13.01,2013-06-30 19:57:00,
2013-06-30 15:59:00,77.7,72.8,29.70,SSE,162,0.0,10.0,85,0.03,,---,0.03,VWS V13.01,2013-06-30 19:59:00,
2013-06-30 16:00:00,77.7,72.8,29.70,SSE,161,0.0,10.0,85,0.03,,---,0.03,VWS V13.01,2013-06-30 20:00:00,
2013-06-30 16:01:00,77.6,72.7,29.70,SSE,161,0.0,10.0,85,0.03,,---,0.03,VWS V13.01,2013-06-30 20:01:00,
2013-06-30 16:02:00,77.5,72.6,29.70,South,176,1.0,6.0,85,0.03,,---,0.03,VWS V13.01,2013-06-30 20:02:00,
2013-06-30 16:05:00,77.3,72.4,29.70,SW,225,0.0,7.0,85,0.03,,---,0.03,VWS V13.01,2013-06-30 20:05:00,
2013-06-30 16:06:00,77.3,72.4,29.70,SW,225,0.0,7.0,85,0.03,,---,0.03,VWS V13.01,2013-06-30 20:06:00,
2013-06-30 16:07:00,77.2,72.3,29.70,SSE,149,3.0,7.0,85,0.03,,---,0.03,VWS V13.01,2013-06-30 20:07:00,
2013-06-30 16:10:00,77.0,72.5,29.70,SSE,161,1.0,7.0,86,0.03,,---,0.03,VWS V13.01,2013-06-30 20:10:00,
2013-06-30 16:11:00,77.0,72.5,29.70,SSE,157,1.0,7.0,86,0.03,,---,0.03,VWS V13.01,2013-06-30 20:11:00,
2013-06-30 16:12:00,76.9,72.4,29.70,SSE,155,0.0,7.0,86,0.03,,---,0.03,VWS V13.01,2013-06-30 20:12:00,
2013-06-30 16:15:00,76.7,72.5,29.70,SSE,149,0.0,7.0,87,0.03,,---,0.03,VWS V13.01,2013-06-30 20:15:00,
2013-06-30 16:16:00,76.7,72.5,29.70,SSE,151,0.0,7.0,87,0.03,,---,0.03,VWS V13.01,2013-06-30 20:16:00,
2013-06-30 16:17:00,76.6,72.4,29.70,SE,125,0.0,7.0,87,0.03,,---,0.03,VWS V13.01,2013-06-30 20:17:00,
2013-06-30 16:20:00,76.5,72.3,29.70,SSE,153,0.0,7.0,87,0.03,,---,0.03,VWS V13.01,2013-06-30 20:20:00,
2013-06-30 16:21:00,76.4,72.2,29.70,SSE,153,0.0,7.0,87,0.03,,---,0.03,VWS V13.01,2013-06-30 20:21:00,
2013-06-30 16:22:00,76.4,72.2,29.70,SE,146,0.0,7.0,87,0.03,,---,0.03,VWS V13.01,2013-06-30 20:22:00,
2013-06-30 16:25:00,76.3,72.5,29.70,ESE,121,0.0,7.0,88,0.03,,---,0.03,VWS V13.01,2013-06-30 20:25:00,
2013-06-30 16:26:00,76.3,72.5,29.70,SSW,207,0.0,7.0,88,0.03,,---,0.03,VWS V13.01,2013-06-30 20:26:00,
2013-06-30 16:27:00,76.2,72.4,29.70,South,170,0.0,7.0,88,0.03,,---,0.03,VWS V13.01,2013-06-30 20:27:00,
2013-06-30 16:28:00,76.2,72.4,29.70,South,170,0.0,7.0,88,0.03,,---,0.03,VWS V13.01,2013-06-30 20:28:00,
2013-06-30 16:30:00,76.1,71.9,29.70,South,169,0.0,7.0,87,0.03,,---,0.03,VWS V13.01,2013-06-30 20:30:00,
2013-06-30 16:31:00,76.1,72.3,29.71,South,169,0.0,7.0,88,0.03,,---,0.03,VWS V13.01,2013-06-30 20:31:00,
2013-06-30 16:32:00,76.0,72.2,29.71,South,175,7.0,7.0,88,0.03,,---,0.03,VWS V13.01,2013-06-30 20:32:00,
2013-06-30 16:33:00,76.0,72.2,29.71,South,169,0.0,7.0,88,0.01,,---,0.03,VWS V13.01,2013-06-30 20:33:00,
2013-06-30 16:35:00,75.8,71.7,29.70,SSE,168,0.0,7.0,87,0.01,,---,0.03,VWS V13.01,2013-06-30 20:35:00,
2013-06-30 16:36:00,75.8,71.7,29.70,SSE,168,1.0,7.0,87,0.01,,---,0.03,VWS V13.01,2013-06-30 20:36:00,
2013-06-30 16:37:00,75.8,72.0,29.70,SSE,167,1.0,7.0,88,0.01,,---,0.03,VWS V13.01,2013-06-30 20:37:00,
2013-06-30 16:38:00,75.8,72.0,29.70,South,170,0.0,7.0,88,0.01,,---,0.03,VWS V13.01,2013-06-30 20:38:00,
2013-06-30 16:40:00,75.7,71.9,29.71,SSE,159,0.0,7.0,88,0.01,,---,0.03,VWS V13.01,2013-06-30 20:40:00,
2013-06-30 16:41:00,75.8,72.0,29.71,SSE,168,3.0,7.0,88,0.01,,---,0.03,VWS V13.01,2013-06-30 20:41:00,
2013-06-30 16:42:00,75.7,71.9,29.71,SSE,158,0.0,7.0,88,0.01,,---,0.03,VWS V13.01,2013-06-30 20:42:00,
2013-06-30 16:43:00,75.7,71.9,29.71,SSE,157,0.0,7.0,88,0.01,,---,0.03,VWS V13.01,2013-06-30 20:43:00,
2013-06-30 16:45:00,75.7,72.2,29.71,ENE,65,1.0,7.0,89,0.01,,---,0.03,VWS V13.01,2013-06-30 20:45:00,
2013-06-30 16:46:00,75.7,72.2,29.71,SSE,158,1.0,7.0,89,0.01,,---,0.03,VWS V13.01,2013-06-30 20:46:00,
2013-06-30 16:47:00,75.7,72.2,29.71,SSW,203,0.0,7.0,89,0.01,,---,0.03,VWS V13.01,2013-06-30 20:47:00,
2013-06-30 16:48:00,75.6,72.1,29.71,South,173,0.0,7.0,89,0.01,,---,0.03,VWS V13.01,2013-06-30 20:48:00,
2013-06-30 16:50:00,75.6,72.1,29.71,South,175,0.0,7.0,89,0.01,,---,0.03,VWS V13.01,2013-06-30 20:50:00,
2013-06-30 16:51:00,75.7,72.2,29.71,South,175,0.0,7.0,89,0.01,,---,0.03,VWS V13.01,2013-06-30 20:51:00,
2013-06-30 16:52:00,75.7,72.2,29.71,South,173,0.0,7.0,89,0.01,,---,0.03,VWS V13.01,2013-06-30 20:52:00,
2013-06-30 16:53:00,75.7,72.2,29.71,South,169,0.0,7.0,89,0.01,,---,0.03,VWS V13.01,2013-06-30 20:53:00,
2013-06-30 16:55:00,75.7,72.2,29.71,ESE,105,0.0,7.0,89,0.01,,---,0.03,VWS V13.01,2013-06-30 20:55:00,
2013-06-30 16:57:00,75.6,72.1,29.71,South,180,13.0,13.0,89,0.01,,---,0.03,VWS V13.01,2013-06-30 20:57:00,
2013-06-30 16:58:00,75.6,71.8,29.71,SE,134,0.0,14.0,88,0.01,,---,0.03,VWS V13.01,2013-06-30 20:58:00,
2013-06-30 17:01:00,75.5,71.7,29.71,ESE,113,0.0,14.0,88,0.01,,---,0.03,VWS V13.01,2013-06-30 21:01:00,
2013-06-30 17:02:00,75.5,71.7,29.72,SSE,160,6.0,7.0,88,0.01,,---,0.03,VWS V13.01,2013-06-30 21:02:00,
2013-06-30 17:03:00,75.5,71.7,29.72,SSE,159,2.0,7.0,88,0.00,,---,0.03,VWS V13.01,2013-06-30 21:03:00,
2013-06-30 17:06:00,75.5,71.7,29.72,SE,130,3.0,12.0,88,0.01,,---,0.04,VWS V13.01,2013-06-30 21:06:00,
2013-06-30 17:07:00,75.5,71.7,29.72,South,171,4.0,12.0,88,0.01,,---,0.04,VWS V13.01,2013-06-30 21:07:00,
2013-06-30 17:08:00,75.5,71.7,29.72,ESE,114,0.0,12.0,88,0.01,,---,0.04,VWS V13.01,2013-06-30 21:08:00,
2013-06-30 17:11:00,75.6,71.8,29.72,SSE,163,6.0,12.0,88,0.01,,---,0.04,VWS V13.01,2013-06-30 21:11:00,
2013-06-30 17:12:00,75.7,71.9,29.72,SSE,153,0.0,12.0,88,0.01,,---,0.04,VWS V13.01,2013-06-30 21:12:00,
2013-06-30 17:13:00,75.7,71.9,29.72,SSE,149,0.0,12.0,88,0.01,,---,0.04,VWS V13.01,2013-06-30 21:13:00,
2013-06-30 17:14:00,75.8,72.3,29.72,South,191,7.0,12.0,89,0.01,,---,0.04,VWS V13.01,2013-06-30 21:14:00,
2013-06-30 17:16:00,75.8,72.0,29.72,ESE,121,0.0,12.0,88,0.01,,---,0.04,VWS V13.01,2013-06-30 21:16:00,
2013-06-30 17:17:00,75.8,71.7,29.72,SSE,151,2.0,12.0,87,0.01,,---,0.04,VWS V13.01,2013-06-30 21:17:00,
2013-06-30 17:18:00,75.8,71.7,29.72,SSE,152,0.0,12.0,87,0.01,,---,0.04,VWS V13.01,2013-06-30 21:18:00,
2013-06-30 17:19:00,75.8,71.7,29.72,SE,142,4.0,12.0,87,0.01,,---,0.04,VWS V13.01,2013-06-30 21:19:00,
2013-06-30 17:21:00,75.9,71.8,29.72,SSE,165,3.0,12.0,87,0.01,,---,0.04,VWS V13.01,2013-06-30 21:21:00,
2013-06-30 17:22:00,76.0,72.2,29.72,South,171,14.0,14.0,88,0.01,,---,0.04,VWS V13.01,2013-06-30 21:22:00,
2013-06-30 17:23:00,76.0,71.9,29.72,SE,145,0.0,14.0,87,0.01,,---,0.04,VWS V13.01,2013-06-30 21:23:00,
2013-06-30 17:24:00,76.1,72.3,29.72,SSE,166,0.0,14.0,88,0.01,,---,0.04,VWS V13.01,2013-06-30 21:24:00,
2013-06-30 17:26:00,76.3,72.5,29.72,East,92,2.0,14.0,88,0.01,,---,0.04,VWS V13.01,2013-06-30 21:26:00,
2013-06-30 17:27:00,76.4,72.6,29.72,SE,126,0.0,14.0,88,0.01,,---,0.04,VWS V13.01,2013-06-30 21:27:00,
2013-06-30 17:28:00,76.5,72.7,29.72,East,98,3.0,14.0,88,0.01,,---,0.04,VWS V13.01,2013-06-30 21:28:00,
2013-06-30 17:30:00,76.5,72.3,29.73,ESE,103,3.0,14.0,87,0.01,,---,0.04,VWS V13.01,2013-06-30 21:30:00,
2013-06-30 17:31:00,76.5,72.0,29.73,SSE,168,4.0,14.0,86,0.01,,---,0.04,VWS V13.01,2013-06-30 21:31:00,
2013-06-30 17:32:00,76.5,72.0,29.73,South,173,0.0,6.0,86,0.01,,---,0.04,VWS V13.01,2013-06-30 21:32:00,
2013-06-30 17:33:00,76.5,72.0,29.73,South,169,5.0,10.0,86,0.01,,---,0.04,VWS V13.01,2013-06-30 21:33:00,
2013-06-30 17:35:00,76.5,72.0,29.73,South,172,5.0,10.0,86,0.01,,---,0.04,VWS V13.01,2013-06-30 21:35:00,
2013-06-30 17:36:00,76.5,71.7,29.73,SE,146,0.0,10.0,85,0.01,,---,0.04,VWS V13.01,2013-06-30 21:36:00,
2013-06-30 17:37:00,76.4,71.6,29.73,SW,228,0.0,12.0,85,0.01,,---,0.04,VWS V13.01,2013-06-30 21:37:00,
2013-06-30 17:38:00,76.4,71.6,29.73,SW,228,0.0,12.0,85,0.01,,---,0.04,VWS V13.01,2013-06-30 21:38:00,
2013-06-30 17:39:00,76.4,71.6,29.73,SSE,166,1.0,12.0,85,0.01,,---,0.04,VWS V13.01,2013-06-30 21:39:00,
2013-06-30 17:40:00,76.4,71.6,29.73,South,169,0.0,12.0,85,0.01,,---,0.04,VWS V13.01,2013-06-30 21:40:00,
2013-06-30 17:41:00,76.4,71.6,29.73,SE,143,0.0,12.0,85,0.01,,---,0.04,VWS V13.01,2013-06-30 21:41:00,
2013-06-30 17:42:00,76.5,71.7,29.73,SE,132,6.0,12.0,85,0.01,,---,0.04,VWS V13.01,2013-06-30 21:42:00,
2013-06-30 17:43:00,76.5,71.7,29.73,ESE,122,1.0,12.0,85,0.01,,---,0.04,VWS V13.01,2013-06-30 21:43:00,
2013-06-30 17:44:00,76.5,71.7,29.72,SSW,200,0.0,12.0,85,0.01,,---,0.04,VWS V13.01,2013-06-30 21:44:00,
2013-06-30 17:45:00,76.5,72.0,29.73,SSW,197,0.0,12.0,86,0.01,,---,0.04,VWS V13.01,2013-06-30 21:45:00,
2013-06-30 17:46:00,76.6,72.1,29.72,SE,130,4.0,12.0,86,0.01,,---,0.04,VWS V13.01,2013-06-30 21:46:00,
2013-06-30 17:47:00,76.6,72.1,29.73,SE,140,4.0,12.0,86,0.01,,---,0.04,VWS V13.01,2013-06-30 21:47:00,
2013-06-30 17:48:00,76.6,72.1,29.73,South,170,3.0,12.0,86,0.01,,---,0.04,VWS V13.01,2013-06-30 21:48:00,
2013-06-30 17:49:00,76.6,72.1,29.73,SE,133,3.0,12.0,86,0.01,,---,0.04,VWS V13.01,2013-06-30 21:49:00,
2013-06-30 17:50:00,76.6,72.1,29.73,SSW,194,4.0,12.0,86,0.01,,---,0.04,VWS V13.01,2013-06-30 21:50:00,
2013-06-30 17:51:00,76.6,72.1,29.73,SE,143,10.0,12.0,86,0.01,,---,0.04,VWS V13.01,2013-06-30 21:51:00,
2013-06-30 17:53:00,76.5,71.7,29.73,ESE,111,2.0,12.0,85,0.01,,---,0.04,VWS V13.01,2013-06-30 21:53:00,
2013-06-30 17:54:00,76.5,72.0,29.73,SSE,155,0.0,12.0,86,0.01,,---,0.04,VWS V13.01,2013-06-30 21:54:00,
2013-06-30 17:55:00,76.5,72.0,29.72,SSE,166,2.0,12.0,86,0.01,,---,0.04,VWS V13.01,2013-06-30 21:55:00,
2013-06-30 17:56:00,76.5,72.0,29.72,SE,140,7.0,12.0,86,0.01,,---,0.04,VWS V13.01,2013-06-30 21:56:00,
2013-06-30 17:58:00,76.4,71.9,29.73,South,181,3.0,15.0,86,0.01,,---,0.04,VWS V13.01,2013-06-30 21:58:00,
2013-06-30 17:59:00,76.3,71.8,29.73,South,171,3.0,15.0,86,0.01,,---,0.04,VWS V13.01,2013-06-30 21:59:00,
2013-06-30 18:00:00,76.2,71.7,29.73,East,96,0.0,15.0,86,0.01,,---,0.04,VWS V13.01,2013-06-30 22:00:00,
2013-06-30 18:01:00,76.3,71.8,29.73,South,174,6.0,15.0,86,0.01,,---,0.04,VWS V13.01,2013-06-30 22:01:00,
2013-06-30 18:03:00,76.1,71.6,29.73,South,180,5.0,10.0,86,0.01,,---,0.04,VWS V13.01,2013-06-30 22:03:00,
2013-06-30 18:04:00,76.0,71.5,29.73,South,188,0.0,10.0,86,0.01,,---,0.04,VWS V13.01,2013-06-30 22:04:00,
2013-06-30 18:06:00,76.0,71.5,29.73,South,180,0.0,10.0,86,0.01,,---,0.04,VWS V13.01,2013-06-30 22:06:00,
2013-06-30 18:08:00,75.8,71.7,29.73,SSE,159,0.0,12.0,87,0.01,,---,0.04,VWS V13.01,2013-06-30 22:08:00,
2013-06-30 18:09:00,75.8,71.7,29.73,South,182,1.0,12.0,87,0.01,,---,0.04,VWS V13.01,2013-06-30 22:09:00,
2013-06-30 18:11:00,75.8,71.7,29.73,SSE,154,3.0,12.0,87,0.01,,---,0.04,VWS V13.01,2013-06-30 22:11:00,
2013-06-30 18:13:00,75.7,71.6,29.73,SSE,153,0.0,12.0,87,0.01,,---,0.04,VWS V13.01,2013-06-30 22:13:00,
2013-06-30 18:14:00,75.7,71.6,29.73,SE,141,0.0,12.0,87,0.01,,---,0.04,VWS V13.01,2013-06-30 22:14:00,
2013-06-30 18:15:00,75.7,71.9,29.73,SSE,148,0.0,12.0,88,0.01,,---,0.04,VWS V13.01,2013-06-30 22:15:00,
2013-06-30 18:16:00,75.7,71.9,29.73,ESE,111,0.0,12.0,88,0.01,,---,0.04,VWS V13.01,2013-06-30 22:16:00,
2013-06-30 18:19:00,75.6,71.8,29.73,SE,132,0.0,12.0,88,0.01,,---,0.04,VWS V13.01,2013-06-30 22:19:00,
2013-06-30 18:20:00,75.6,71.8,29.73,SE,133,0.0,12.0,88,0.01,,---,0.04,VWS V13.01,2013-06-30 22:20:00,
2013-06-30 18:21:00,75.6,71.8,29.73,ESE,111,0.0,12.0,88,0.01,,---,0.04,VWS V13.01,2013-06-30 22:21:00,
2013-06-30 18:24:00,75.5,71.4,29.73,SSE,160,0.0,12.0,87,0.01,,---,0.04,VWS V13.01,2013-06-30 22:24:00,
2013-06-30 18:25:00,75.4,71.3,29.73,SSE,149,0.0,12.0,87,0.01,,---,0.04,VWS V13.01,2013-06-30 22:25:00,
2013-06-30 18:26:00,75.4,71.3,29.73,SE,129,0.0,12.0,87,0.01,,---,0.04,VWS V13.01,2013-06-30 22:26:00,
2013-06-30 18:27:00,75.3,71.2,29.73,East,98,3.0,12.0,87,0.01,,---,0.04,VWS V13.01,2013-06-30 22:27:00,
2013-06-30 18:29:00,75.3,71.2,29.73,ESE,119,3.0,12.0,87,0.01,,---,0.04,VWS V13.01,2013-06-30 22:29:00,
2013-06-30 18:30:00,75.3,71.2,29.73,SSE,149,0.0,12.0,87,0.01,,---,0.04,VWS V13.01,2013-06-30 22:30:00,
2013-06-30 18:31:00,75.2,71.1,29.73,SSE,149,0.0,12.0,87,0.01,,---,0.04,VWS V13.01,2013-06-30 22:31:00,
2013-06-30 18:32:00,75.2,71.1,29.73,ESE,104,0.0,2.0,87,0.01,,---,0.04,VWS V13.01,2013-06-30 22:32:00,
2013-06-30 18:34:00,75.2,71.1,29.73,East,97,2.0,4.0,87,0.00,,---,0.04,VWS V13.01,2013-06-30 22:34:00,
2013-06-30 18:35:00,75.1,71.0,29.73,East,94,0.0,4.0,87,0.00,,---,0.04,VWS V13.01,2013-06-30 22:35:00,
2013-06-30 18:36:00,75.1,71.0,29.73,East,95,0.0,4.0,87,0.00,,---,0.04,VWS V13.01,2013-06-30 22:36:00,
2013-06-30 18:37:00,75.1,71.0,29.73,East,90,0.0,4.0,87,0.00,,---,0.04,VWS V13.01,2013-06-30 22:37:00,
2013-06-30 18:39:00,75.0,70.9,29.73,SE,126,3.0,4.0,87,0.00,,---,0.04,VWS V13.01,2013-06-30 22:39:00,
2013-06-30 18:40:00,75.0,70.9,29.73,ESE,105,3.0,4.0,87,0.00,,---,0.04,VWS V13.01,2013-06-30 22:40:00,
2013-06-30 18:41:00,75.0,70.9,29.73,ESE,117,0.0,4.0,87,0.00,,---,0.04,VWS V13.01,2013-06-30 22:41:00,
2013-06-30 18:42:00,74.9,70.8,29.73,ESE,117,0.0,4.0,87,0.00,,---,0.04,VWS V13.01,2013-06-30 22:42:00,
2013-06-30 18:45:00,74.9,70.8,29.73,East,99,1.0,4.0,87,0.00,,---,0.04,VWS V13.01,2013-06-30 22:45:00,
2013-06-30 18:46:00,74.9,70.8,29.73,SSE,150,3.0,4.0,87,0.00,,---,0.04,VWS V13.01,2013-06-30 22:46:00,
2013-06-30 18:47:00,74.8,70.7,29.73,ESE,107,0.0,4.0,87,0.00,,---,0.04,VWS V13.01,2013-06-30 22:47:00,
2013-06-30 18:50:00,74.7,70.6,29.73,ESE,115,0.0,5.0,87,0.00,,---,0.04,VWS V13.01,2013-06-30 22:50:00,
2013-06-30 18:51:00,74.7,70.6,29.73,East,94,1.0,5.0,87,0.00,,---,0.04,VWS V13.01,2013-06-30 22:51:00,
2013-06-30 18:52:00,74.6,70.5,29.73,East,99,0.0,5.0,87,0.00,,---,0.04,VWS V13.01,2013-06-30 22:52:00,
2013-06-30 18:55:00,74.6,70.5,29.73,ESE,108,5.0,5.0,87,0.00,,---,0.04,VWS V13.01,2013-06-30 22:55:00,
2013-06-30 18:56:00,74.5,70.4,29.73,South,169,9.0,9.0,87,0.00,,---,0.04,VWS V13.01,2013-06-30 22:56:00,
2013-06-30 18:57:00,74.5,70.4,29.73,South,169,0.0,9.0,87,0.00,,---,0.04,VWS V13.01,2013-06-30 22:57:00,
2013-06-30 19:00:00,74.3,70.2,29.73,South,169,0.0,9.0,87,0.00,,---,0.04,VWS V13.01,2013-06-30 23:00:00,
2013-06-30 19:01:00,74.3,70.2,29.73,SSE,150,1.0,9.0,87,0.00,,---,0.04,VWS V13.01,2013-06-30 23:01:00,
2013-06-30 19:02:00,74.3,70.2,29.73,South,176,0.0,4.0,87,0.00,,---,0.04,VWS V13.01,2013-06-30 23:02:00,
2013-06-30 19:05:00,74.2,70.1,29.74,South,172,0.0,4.0,87,0.00,,---,0.04,VWS V13.01,2013-06-30 23:05:00,
2013-06-30 19:06:00,74.2,70.1,29.74,South,169,0.0,4.0,87,0.00,,---,0.04,VWS V13.01,2013-06-30 23:06:00,
2013-06-30 19:07:00,74.1,70.3,29.74,South,174,1.0,4.0,88,0.00,,---,0.04,VWS V13.01,2013-06-30 23:07:00,
2013-06-30 19:08:00,74.1,70.3,29.74,ESE,122,0.0,5.0,88,0.00,,---,0.04,VWS V13.01,2013-06-30 23:08:00,
2013-06-30 19:10:00,74.0,70.2,29.74,SSE,161,0.0,6.0,88,0.00,,---,0.04,VWS V13.01,2013-06-30 23:10:00,
2013-06-30 19:11:00,74.0,70.2,29.74,SSE,161,0.0,6.0,88,0.00,,---,0.04,VWS V13.01,2013-06-30 23:11:00,
2013-06-30 19:12:00,74.0,70.2,29.74,SSW,211,1.0,6.0,88,0.00,,---,0.04,VWS V13.01,2013-06-30 23:12:00,
2013-06-30 19:13:00,73.9,70.1,29.74,ESE,118,0.0,6.0,88,0.00,,---,0.04,VWS V13.01,2013-06-30 23:13:00,
2013-06-30 19:15:00,73.8,70.0,29.74,SSE,157,0.0,6.0,88,0.00,,---,0.04,VWS V13.01,2013-06-30 23:15:00,
2013-06-30 19:16:00,73.8,70.0,29.74,SE,129,0.0,6.0,88,0.00,,---,0.04,VWS V13.01,2013-06-30 23:16:00,
2013-06-30 19:17:00,73.8,70.0,29.74,SSE,161,0.0,6.0,88,0.00,,---,0.04,VWS V13.01,2013-06-30 23:17:00,
2013-06-30 19:18:00,73.7,69.9,29.74,SSE,147,0.0,6.0,88,0.00,,---,0.04,VWS V13.01,2013-06-30 23:18:00,
2013-06-30 19:20:00,73.6,69.8,29.75,SE,136,0.0,7.0,88,0.00,,---,0.04,VWS V13.01,2013-06-30 23:20:00,
2013-06-30 19:21:00,73.6,69.8,29.75,SE,130,0.0,7.0,88,0.00,,---,0.04,VWS V13.01,2013-06-30 23:21:00,
2013-06-30 19:22:00,73.6,69.8,29.75,SSE,165,1.0,7.0,88,0.00,,---,0.04,VWS V13.01,2013-06-30 23:22:00,
2013-06-30 19:23:00,73.5,69.7,29.75,SSE,165,2.0,7.0,88,0.00,,---,0.04,VWS V13.01,2013-06-30 23:23:00,
2013-06-30 19:25:00,73.4,69.6,29.75,SSE,168,0.0,10.0,88,0.00,,---,0.04,VWS V13.01,2013-06-30 23:25:00,
2013-06-30 19:26:00,73.4,69.6,29.75,SE,132,4.0,10.0,88,0.00,,---,0.04,VWS V13.01,2013-06-30 23:26:00,
2013-06-30 19:27:00,73.3,69.9,29.75,SSE,148,0.0,10.0,89,0.00,,---,0.04,VWS V13.01,2013-06-30 23:27:00,
2013-06-30 19:28:00,73.3,69.9,29.75,SSE,161,3.0,10.0,89,0.00,,---,0.04,VWS V13.01,2013-06-30 23:28:00,
2013-06-30 19:30:00,73.3,69.9,29.76,SSE,163,3.0,10.0,89,0.00,,---,0.04,VWS V13.01,2013-06-30 23:30:00,
2013-06-30 19:31:00,73.2,69.8,29.76,SSE,167,0.0,10.0,89,0.00,,---,0.04,VWS V13.01,2013-06-30 23:31:00,
2013-06-30 19:32:00,73.2,69.8,29.76,SSW,209,0.0,3.0,89,0.00,,---,0.04,VWS V13.01,2013-06-30 23:32:00,
2013-06-30 19:33:00,73.2,69.8,29.76,SSE,147,0.0,3.0,89,0.00,,---,0.04,VWS V13.01,2013-06-30 23:33:00,
2013-06-30 19:35:00,73.1,69.7,29.76,SE,128,5.0,6.0,89,0.00,,---,0.04,VWS V13.01,2013-06-30 23:35:00,
2013-06-30 19:36:00,73.1,69.7,29.76,SE,136,0.0,6.0,89,0.00,,---,0.04,VWS V13.01,2013-06-30 23:36:00,
2013-06-30 19:37:00,73.1,69.7,29.76,SSE,149,0.0,6.0,89,0.00,,---,0.04,VWS V13.01,2013-06-30 23:37:00,
2013-06-30 19:38:00,73.1,69.7,29.76,SSE,161,0.0,6.0,89,0.00,,---,0.04,VWS V13.01,2013-06-30 23:38:00,
2013-06-30 19:40:00,73.0,69.6,29.76,South,190,3.0,6.0,89,0.00,,---,0.04,VWS V13.01,2013-06-30 23:40:00,
2013-06-30 19:41:00,73.0,69.6,29.76,South,188,0.0,6.0,89,0.00,,---,0.04,VWS V13.01,2013-06-30 23:41:00,
2013-06-30 19:42:00,73.0,69.6,29.76,South,188,0.0,6.0,89,0.00,,---,0.04,VWS V13.01,2013-06-30 23:42:00,
2013-06-30 19:43:00,72.9,69.5,29.76,South,188,0.0,6.0,89,0.00,,---,0.04,VWS V13.01,2013-06-30 23:43:00,
2013-06-30 19:46:00,72.9,69.8,29.76,SE,132,0.0,6.0,90,0.00,,---,0.04,VWS V13.01,2013-06-30 23:46:00,
2013-06-30 19:47:00,72.9,69.8,29.76,SSE,164,0.0,6.0,90,0.00,,---,0.04,VWS V13.01,2013-06-30 23:47:00,
2013-06-30 19:48:00,72.9,69.8,29.76,SSE,165,0.0,6.0,90,0.00,,---,0.04,VWS V13.01,2013-06-30 23:48:00,
2013-06-30 19:51:00,72.8,69.7,29.76,SSW,202,3.0,6.0,90,0.00,,---,0.04,VWS V13.01,2013-06-30 23:51:00,
2013-06-30 19:52:00,72.8,69.7,29.76,SSE,155,0.0,6.0,90,0.00,,---,0.04,VWS V13.01,2013-06-30 23:52:00,
2013-06-30 19:53:00,72.8,69.7,29.76,SSE,155,0.0,6.0,90,0.00,,---,0.04,VWS V13.01,2013-06-30 23:53:00,
2013-06-30 19:56:00,72.7,69.6,29.77,South,188,2.0,9.0,90,0.00,,---,0.04,VWS V13.01,2013-06-30 23:56:00,
2013-06-30 19:57:00,72.7,69.6,29.77,SSW,198,0.0,9.0,90,0.00,,---,0.04,VWS V13.01,2013-06-30 23:57:00,
2013-06-30 19:58:00,72.6,69.5,29.76,SSW,197,0.0,9.0,90,0.00,,---,0.04,VWS V13.01,2013-06-30 23:58:00,
2013-06-30 20:01:00,72.6,69.5,29.77,South,176,0.0,9.0,90,0.00,,---,0.04,VWS V13.01,2013-07-01 00:01:00,
2013-06-30 20:02:00,72.6,69.5,29.77,SSE,155,7.0,7.0,90,0.00,,---,0.04,VWS V13.01,2013-07-01 00:02:00,
2013-06-30 20:03:00,72.5,69.4,29.77,SSW,198,0.0,7.0,90,0.00,,---,0.04,VWS V13.01,2013-07-01 00:03:00,
2013-06-30 20:04:00,72.5,69.4,29.77,South,191,0.0,7.0,90,0.00,,---,0.04,VWS V13.01,2013-07-01 00:04:00,
2013-06-30 20:06:00,72.5,69.7,29.77,SSE,163,0.0,8.0,91,0.01,,---,0.05,VWS V13.01,2013-07-01 00:06:00,
2013-06-30 20:07:00,72.5,69.7,29.77,SSE,163,0.0,8.0,91,0.01,,---,0.05,VWS V13.01,2013-07-01 00:07:00,
2013-06-30 20:08:00,72.4,69.6,29.77,SSW,192,0.0,8.0,91,0.01,,---,0.05,VWS V13.01,2013-07-01 00:08:00,
2013-06-30 20:09:00,72.4,69.6,29.77,South,180,1.0,8.0,91,0.01,,---,0.06,VWS V13.01,2013-07-01 00:09:00,
2013-06-30 20:11:00,72.4,69.6,29.77,SW,218,0.0,8.0,91,0.03,,---,0.07,VWS V13.01,2013-07-01 00:11:00,
2013-06-30 20:12:00,72.3,69.5,29.77,SW,217,0.0,8.0,91,0.03,,---,0.07,VWS V13.01,2013-07-01 00:12:00,
2013-06-30 20:13:00,72.3,69.5,29.77,SSE,165,2.0,8.0,91,0.03,,---,0.07,VWS V13.01,2013-07-01 00:13:00,
2013-06-30 20:14:00,72.3,69.5,29.77,SSE,168,0.0,8.0,91,0.03,,---,0.08,VWS V13.01,2013-07-01 00:14:00,
2013-06-30 20:16:00,72.2,69.4,29.77,ESE,110,3.0,10.0,91,0.04,,---,0.08,VWS V13.01,2013-07-01 00:16:00,
2013-06-30 20:17:00,72.2,69.4,29.77,ESE,107,0.0,10.0,91,0.04,,---,0.08,VWS V13.01,2013-07-01 00:17:00,
2013-06-30 20:19:00,72.2,69.4,29.77,South,171,3.0,10.0,91,0.05,,---,0.09,VWS V13.01,2013-07-01 00:19:00,
2013-06-30 20:20:00,72.1,69.3,29.77,SW,224,3.0,10.0,91,0.05,,---,0.09,VWS V13.01,2013-07-01 00:20:00,
2013-06-30 20:22:00,72.1,69.3,29.77,SSE,153,4.0,10.0,91,0.06,,---,0.10,VWS V13.01,2013-07-01 00:22:00,
2013-06-30 20:23:00,72.0,69.6,29.77,South,188,1.0,10.0,92,0.06,,---,0.10,VWS V13.01,2013-07-01 00:23:00,
2013-06-30 20:24:00,72.0,69.6,29.77,SSE,155,0.0,10.0,92,0.06,,---,0.10,VWS V13.01,2013-07-01 00:24:00,
2013-06-30 20:25:00,72.0,69.2,29.77,SE,130,0.0,10.0,91,0.06,,---,0.11,VWS V13.01,2013-07-01 00:25:00,
2013-06-30 20:27:00,71.9,69.4,29.77,SSE,159,0.0,10.0,92,0.07,,---,0.11,VWS V13.01,2013-07-01 00:27:00,
2013-06-30 20:28:00,71.8,69.3,29.76,South,188,1.0,10.0,92,0.07,,---,0.11,VWS V13.01,2013-07-01 00:28:00,
2013-06-30 20:30:00,71.8,69.3,29.76,SSW,196,0.0,10.0,92,0.08,,---,0.12,VWS V13.01,2013-07-01 00:30:00,
2013-06-30 20:32:00,71.7,69.3,29.76,SSW,199,0.0,0.0,92,0.08,,---,0.13,VWS V13.01,2013-07-01 00:32:00,
2013-06-30 20:33:00,71.7,69.3,29.76,SSW,200,0.0,0.0,92,0.09,,---,0.13,VWS V13.01,2013-07-01 00:33:00,
2013-06-30 20:35:00,71.7,69.3,29.76,WSW,248,0.0,4.0,92,0.09,,---,0.13,VWS V13.01,2013-07-01 00:35:00,
2013-06-30 20:37:00,71.6,69.2,29.76,SSW,199,2.0,9.0,92,0.10,,---,0.14,VWS V13.01,2013-07-01 00:37:00,
2013-06-30 20:38:00,71.6,69.2,29.76,South,178,2.0,9.0,92,0.10,,---,0.14,VWS V13.01,2013-07-01 00:38:00,
2013-06-30 20:40:00,71.5,69.1,29.76,SSE,159,5.0,9.0,92,0.11,,---,0.15,VWS V13.01,2013-07-01 00:40:00,
2013-06-30 20:42:00,71.5,69.4,29.76,SSW,194,1.0,9.0,93,0.11,,---,0.15,VWS V13.01,2013-07-01 00:42:00,
2013-06-30 20:43:00,71.4,69.3,29.76,East,97,0.0,9.0,93,0.11,,---,0.16,VWS V13.01,2013-07-01 00:43:00,
2013-06-30 20:45:00,71.4,69.3,29.76,SE,138,1.0,9.0,93,0.12,,---,0.16,VWS V13.01,2013-07-01 00:45:00,
2013-06-30 20:46:00,71.4,69.3,29.76,SSE,167,6.0,9.0,93,0.12,,---,0.16,VWS V13.01,2013-07-01 00:46:00,
2013-06-30 20:47:00,71.3,69.2,29.76,South,184,0.0,9.0,93,0.13,,---,0.17,VWS V13.01,2013-07-01 00:47:00,
2013-06-30 20:48:00,71.3,69.2,29.76,SSE,161,2.0,9.0,93,0.13,,---,0.17,VWS V13.01,2013-07-01 00:48:00,
2013-06-30 20:50:00,71.3,69.2,29.75,SW,229,0.0,9.0,93,0.13,,---,0.17,VWS V13.01,2013-07-01 00:50:00,
2013-06-30 20:51:00,71.3,69.2,29.75,SW,229,0.0,9.0,93,0.13,,---,0.18,VWS V13.01,2013-07-01 00:51:00,
2013-06-30 20:52:00,71.3,69.2,29.75,SW,220,0.0,9.0,93,0.14,,---,0.18,VWS V13.01,2013-07-01 00:52:00,
2013-06-30 20:53:00,71.3,69.2,29.75,SW,218,0.0,9.0,93,0.14,,---,0.18,VWS V13.01,2013-07-01 00:53:00,
2013-06-30 20:54:00,71.3,69.2,29.75,South,176,0.0,9.0,93,0.14,,---,0.18,VWS V13.01,2013-07-01 00:54:00,
2013-06-30 20:55:00,71.3,69.2,29.75,SSE,163,0.0,9.0,93,0.14,,---,0.18,VWS V13.01,2013-07-01 00:55:00,
2013-06-30 20:56:00,71.3,69.2,29.75,SSE,163,0.0,9.0,93,0.14,,---,0.18,VWS V13.01,2013-07-01 00:56:00,
2013-06-30 20:57:00,71.2,69.1,29.74,South,179,5.0,9.0,93,0.14,,---,0.18,VWS V13.01,2013-07-01 00:57:00,
2013-06-30 20:59:00,71.2,69.1,29.74,South,175,0.0,9.0,93,0.14,,---,0.18,VWS V13.01,2013-07-01 00:59:00,
2013-06-30 21:00:00,71.2,69.1,29.74,South,175,0.0,9.0,93,0.14,,---,0.18,VWS V13.01,2013-07-01 01:00:00,
2013-06-30 21:01:00,71.2,69.1,29.74,South,175,0.0,9.0,93,0.14,,---,0.18,VWS V13.01,2013-07-01 01:01:00,
2013-06-30 21:02:00,71.2,69.1,29.74,South,169,0.0,4.0,93,0.14,,---,0.18,VWS V13.01,2013-07-01 01:02:00,
2013-06-30 21:04:00,71.1,69.3,29.74,SE,140,0.0,7.0,94,0.14,,---,0.18,VWS V13.01,2013-07-01 01:04:00,
2013-06-30 21:06:00,71.1,69.3,29.74,SSE,150,1.0,7.0,94,0.14,,---,0.18,VWS V13.01,2013-07-01 01:06:00,
2013-06-30 21:07:00,71.1,69.3,29.74,SSE,149,0.0,7.0,94,0.14,,---,0.18,VWS V13.01,2013-07-01 01:07:00,
2013-06-30 21:09:00,71.1,69.3,29.74,SE,145,0.0,7.0,94,0.14,,---,0.18,VWS V13.01,2013-07-01 01:09:00,
2013-06-30 21:10:00,71.1,69.3,29.74,South,178,4.0,7.0,94,0.14,,---,0.18,VWS V13.01,2013-07-01 01:10:00,
2013-06-30 21:11:00,71.1,69.3,29.74,South,175,0.0,7.0,94,0.14,,---,0.18,VWS V13.01,2013-07-01 01:11:00,
2013-06-30 21:12:00,71.0,69.2,29.74,SE,126,0.0,7.0,94,0.14,,---,0.18,VWS V13.01,2013-07-01 01:12:00,
2013-06-30 21:14:00,71.0,69.2,29.73,SE,134,0.0,7.0,94,0.14,,---,0.18,VWS V13.01,2013-07-01 01:14:00,
2013-06-30 21:15:00,71.0,69.2,29.73,SE,134,0.0,7.0,94,0.14,,---,0.18,VWS V13.01,2013-07-01 01:15:00,
2013-06-30 21:16:00,71.0,69.2,29.74,SE,133,0.0,7.0,94,0.14,,---,0.18,VWS V13.01,2013-07-01 01:16:00,
2013-06-30 21:18:00,71.0,69.2,29.74,SSE,165,0.0,7.0,94,0.14,,---,0.18,VWS V13.01,2013-07-01 01:18:00,
2013-06-30 21:19:00,70.9,69.1,29.74,South,169,0.0,8.0,94,0.14,,---,0.18,VWS V13.01,2013-07-01 01:19:00,
2013-06-30 21:20:00,70.9,69.1,29.74,SSE,155,4.0,8.0,94,0.14,,---,0.18,VWS V13.01,2013-07-01 01:20:00,
2013-06-30 21:21:00,70.9,69.1,29.74,SSW,203,0.0,8.0,94,0.14,,---,0.18,VWS V13.01,2013-07-01 01:21:00,
2013-06-30 21:23:00,70.9,69.1,29.74,South,177,0.0,8.0,94,0.14,,---,0.18,VWS V13.01,2013-07-01 01:23:00,
2013-06-30 21:24:00,70.9,69.1,29.74,SSE,168,0.0,8.0,94,0.14,,---,0.18,VWS V13.01,2013-07-01 01:24:00,
2013-06-30 21:25:00,70.9,69.1,29.74,South,176,0.0,8.0,94,0.14,,---,0.18,VWS V13.01,2013-07-01 01:25:00,
2013-06-30 21:26:00,70.8,69.0,29.74,ESE,115,2.0,8.0,94,0.14,,---,0.18,VWS V13.01,2013-07-01 01:26:00,
2013-06-30 21:28:00,70.8,69.0,29.74,SSW,205,2.0,8.0,94,0.14,,---,0.18,VWS V13.01,2013-07-01 01:28:00,
2013-06-30 21:30:00,70.8,69.0,29.74,SSE,166,0.0,8.0,94,0.14,,---,0.18,VWS V13.01,2013-07-01 01:30:00,
2013-06-30 21:31:00,70.8,69.0,29.74,SSE,168,1.0,8.0,94,0.14,,---,0.18,VWS V13.01,2013-07-01 01:31:00,
2013-06-30 21:33:00,70.7,68.9,29.74,SE,143,0.0,7.0,94,0.06,,---,0.18,VWS V13.01,2013-07-01 01:33:00,
2013-06-30 21:35:00,70.7,68.9,29.74,SE,138,0.0,7.0,94,0.06,,---,0.18,VWS V13.01,2013-07-01 01:35:00,
2013-06-30 21:36:00,70.7,68.9,29.74,SE,138,0.0,7.0,94,0.06,,---,0.18,VWS V13.01,2013-07-01 01:36:00,
2013-06-30 21:37:00,70.7,68.9,29.75,SE,138,0.0,7.0,94,0.06,,---,0.18,VWS V13.01,2013-07-01 01:37:00,
2013-06-30 21:38:00,70.7,68.9,29.75,SE,138,0.0,7.0,94,0.06,,---,0.18,VWS V13.01,2013-07-01 01:38:00,
2013-06-30 21:40:00,70.6,68.8,29.75,SE,138,0.0,7.0,94,0.06,,---,0.18,VWS V13.01,2013-07-01 01:40:00,
2013-06-30 21:41:00,70.6,68.8,29.75,SE,138,0.0,7.0,94,0.06,,---,0.18,VWS V13.01,2013-07-01 01:41:00,
2013-06-30 21:42:00,70.6,68.8,29.75,SE,138,0.0,7.0,94,0.06,,---,0.18,VWS V13.01,2013-07-01 01:42:00,
2013-06-30 21:44:00,70.6,68.8,29.75,SSE,166,0.0,7.0,94,0.06,,---,0.18,VWS V13.01,2013-07-01 01:44:00,
2013-06-30 21:45:00,70.6,69.1,29.75,SSE,166,0.0,7.0,95,0.06,,---,0.18,VWS V13.01,2013-07-01 01:45:00,
2013-06-30 21:46:00,70.6,69.1,29.75,SSE,166,0.0,7.0,95,0.06,,---,0.18,VWS V13.01,2013-07-01 01:46:00,
2013-06-30 21:47:00,70.6,69.1,29.75,SSE,166,0.0,7.0,95,0.06,,---,0.18,VWS V13.01,2013-07-01 01:47:00,
2013-06-30 21:49:00,70.6,69.1,29.76,SSE,166,0.0,7.0,95,0.07,,---,0.19,VWS V13.01,2013-07-01 01:49:00,
2013-06-30 21:50:00,70.6,69.1,29.76,SSE,165,0.0,7.0,95,0.07,,---,0.19,VWS V13.01,2013-07-01 01:50:00,
2013-06-30 21:51:00,70.5,69.0,29.76,South,184,4.0,7.0,95,0.07,,---,0.19,VWS V13.01,2013-07-01 01:51:00,
2013-06-30 21:52:00,70.5,69.0,29.76,South,184,0.0,7.0,95,0.07,,---,0.19,VWS V13.01,2013-07-01 01:52:00,
2013-06-30 21:54:00,70.5,69.0,29.76,South,185,0.0,7.0,95,0.07,,---,0.19,VWS V13.01,2013-07-01 01:54:00,
2013-06-30 21:55:00,70.5,69.0,29.76,South,184,0.0,7.0,95,0.07,,---,0.19,VWS V13.01,2013-07-01 01:55:00,
2013-06-30 21:56:00,70.5,69.0,29.76,South,185,0.0,7.0,95,0.07,,---,0.19,VWS V13.01,2013-07-01 01:56:00,
2013-06-30 21:57:00,70.5,69.0,29.76,South,185,0.0,7.0,95,0.07,,---,0.19,VWS V13.01,2013-07-01 01:57:00,
2013-06-30 21:59:00,70.5,69.0,29.76,South,184,0.0,7.0,95,0.07,,---,0.19,VWS V13.01,2013-07-01 01:59:00,
2013-06-30 22:01:00,70.5,69.0,29.76,South,185,0.0,7.0,95,0.07,,---,0.19,VWS V13.01,2013-07-01 02:01:00,
2013-06-30 22:02:00,70.4,68.9,29.76,South,185,0.0,0.0,95,0.07,,---,0.19,VWS V13.01,2013-07-01 02:02:00,
2013-06-30 22:04:00,70.4,68.9,29.76,South,185,0.0,0.0,95,0.01,,---,0.19,VWS V13.01,2013-07-01 02:04:00,
2013-06-30 22:06:00,70.4,68.9,29.76,South,185,0.0,0.0,95,0.01,,---,0.19,VWS V13.01,2013-07-01 02:06:00,
2013-06-30 22:07:00,70.4,68.9,29.76,South,184,0.0,0.0,95,0.01,,---,0.19,VWS V13.01,2013-07-01 02:07:00,
2013-06-30 22:09:00,70.4,68.9,29.76,South,185,0.0,1.0,95,0.01,,---,0.19,VWS V13.01,2013-07-01 02:09:00,
2013-06-30 22:11:00,70.4,68.9,29.77,South,184,0.0,1.0,95,0.01,,---,0.19,VWS V13.01,2013-07-01 02:11:00,
2013-06-30 22:12:00,70.4,68.9,29.77,South,185,0.0,1.0,95,0.01,,---,0.19,VWS V13.01,2013-07-01 02:12:00,
2013-06-30 22:14:00,70.4,68.9,29.77,South,185,0.0,2.0,95,0.01,,---,0.19,VWS V13.01,2013-07-01 02:14:00,
2013-06-30 22:16:00,70.3,68.8,29.77,South,185,0.0,2.0,95,0.01,,---,0.19,VWS V13.01,2013-07-01 02:16:00,
2013-06-30 22:17:00,70.4,68.9,29.77,South,184,0.0,2.0,95,0.01,,---,0.19,VWS V13.01,2013-07-01 02:17:00,
2013-06-30 22:18:00,70.3,68.8,29.77,South,185,0.0,2.0,95,0.01,,---,0.19,VWS V13.01,2013-07-01 02:18:00,
2013-06-30 22:19:00,70.3,68.8,29.77,South,185,0.0,2.0,95,0.01,,---,0.19,VWS V13.01,2013-07-01 02:19:00,
2013-06-30 22:21:00,70.3,68.8,29.77,South,184,0.0,2.0,95,0.01,,---,0.19,VWS V13.01,2013-07-01 02:21:00,
2013-06-30 22:22:00,70.3,68.8,29.77,South,184,0.0,2.0,95,0.01,,---,0.19,VWS V13.01,2013-07-01 02:22:00,
2013-06-30 22:23:00,70.3,68.8,29.77,South,185,0.0,2.0,95,0.01,,---,0.19,VWS V13.01,2013-07-01 02:23:00,
2013-06-30 22:24:00,70.3,68.8,29.77,South,184,0.0,2.0,95,0.01,,---,0.19,VWS V13.01,2013-07-01 02:24:00,
2013-06-30 22:26:00,70.3,68.8,29.76,South,180,0.0,2.0,95,0.01,,---,0.19,VWS V13.01,2013-07-01 02:26:00,
2013-06-30 22:27:00,70.3,68.8,29.76,SSE,167,0.0,2.0,95,0.01,,---,0.19,VWS V13.01,2013-07-01 02:27:00,
2013-06-30 22:28:00,70.3,68.8,29.76,SSE,165,0.0,2.0,95,0.01,,---,0.19,VWS V13.01,2013-07-01 02:28:00,
2013-06-30 22:29:00,70.3,68.8,29.76,SSE,163,1.0,2.0,95,0.01,,---,0.19,VWS V13.01,2013-07-01 02:29:00,
2013-06-30 22:31:00,70.3,68.8,29.76,SSE,161,1.0,2.0,95,0.01,,---,0.19,VWS V13.01,2013-07-01 02:31:00,
2013-06-30 22:33:00,70.3,68.8,29.77,SSE,152,0.0,0.0,95,0.01,,---,0.19,VWS V13.01,2013-07-01 02:33:00,
2013-06-30 22:34:00,70.3,68.8,29.77,SSE,152,0.0,1.0,95,0.01,,---,0.19,VWS V13.01,2013-07-01 02:34:00,
2013-06-30 22:36:00,70.3,68.8,29.77,SSE,149,0.0,1.0,95,0.01,,---,0.19,VWS V13.01,2013-07-01 02:36:00,
2013-06-30 22:38:00,70.3,68.8,29.77,SSE,148,0.0,1.0,95,0.01,,---,0.19,VWS V13.01,2013-07-01 02:38:00,
2013-06-30 22:39:00,70.3,68.8,29.77,SSE,148,0.0,1.0,95,0.01,,---,0.19,VWS V13.01,2013-07-01 02:39:00,
2013-06-30 22:41:00,70.2,68.7,29.77,SSE,149,0.0,1.0,95,0.01,,---,0.19,VWS V13.01,2013-07-01 02:41:00,
2013-06-30 22:43:00,70.2,68.7,29.77,SSE,150,0.0,1.0,95,0.01,,---,0.19,VWS V13.01,2013-07-01 02:43:00,
2013-06-30 22:45:00,70.2,68.7,29.77,SSE,148,0.0,1.0,95,0.01,,---,0.19,VWS V13.01,2013-07-01 02:45:00,
2013-06-30 22:46:00,70.2,68.7,29.77,SSE,148,0.0,2.0,95,0.01,,---,0.19,VWS V13.01,2013-07-01 02:46:00,
2013-06-30 22:48:00,70.2,68.7,29.77,SSE,148,0.0,2.0,95,0.01,,---,0.19,VWS V13.01,2013-07-01 02:48:00,
2013-06-30 22:50:00,70.2,69.0,29.77,SSE,148,0.0,2.0,96,0.01,,---,0.19,VWS V13.01,2013-07-01 02:50:00,
2013-06-30 22:51:00,70.2,68.7,29.77,SSE,148,1.0,2.0,95,0.01,,---,0.19,VWS V13.01,2013-07-01 02:51:00,
2013-06-30 22:53:00,70.2,68.7,29.77,SSE,150,0.0,2.0,95,0.01,,---,0.19,VWS V13.01,2013-07-01 02:53:00,
2013-06-30 22:55:00,70.1,68.6,29.77,SSE,149,0.0,2.0,95,0.01,,---,0.19,VWS V13.01,2013-07-01 02:55:00,
2013-06-30 22:57:00,70.1,68.6,29.77,SSE,150,0.0,2.0,95,0.01,,---,0.19,VWS V13.01,2013-07-01 02:57:00,
2013-06-30 22:58:00,70.1,68.6,29.77,SSE,150,0.0,2.0,95,0.01,,---,0.19,VWS V13.01,2013-07-01 02:58:00,
2013-06-30 23:00:00,70.1,68.6,29.77,SSE,149,0.0,2.0,95,0.01,,---,0.19,VWS V13.01,2013-07-01 03:00:00,
2013-06-30 23:02:00,70.1,68.6,29.77,SSE,150,0.0,0.0,95,0.01,,---,0.19,VWS V13.01,2013-07-01 03:02:00,
2013-06-30 23:03:00,70.1,68.6,29.77,SSE,149,0.0,0.0,95,0.00,,---,0.19,VWS V13.01,2013-07-01 03:03:00,
2013-06-30 23:04:00,70.1,68.6,29.77,SSE,150,0.0,0.0,95,0.00,,---,0.19,VWS V13.01,2013-07-01 03:04:00,
2013-06-30 23:05:00,70.1,68.6,29.77,SSE,150,0.0,0.0,95,0.00,,---,0.19,VWS V13.01,2013-07-01 03:05:00,
2013-06-30 23:07:00,70.1,68.6,29.77,SSE,150,0.0,0.0,95,0.00,,---,0.20,VWS V13.01,2013-07-01 03:07:00,
2013-06-30 23:08:00,70.0,68.5,29.77,SSE,150,0.0,0.0,95,0.01,,---,0.20,VWS V13.01,2013-07-01 03:08:00,
2013-06-30 23:09:00,70.0,68.5,29.77,SSE,149,0.0,0.0,95,0.01,,---,0.20,VWS V13.01,2013-07-01 03:09:00,
2013-06-30 23:10:00,70.0,68.5,29.77,SSE,150,0.0,0.0,95,0.01,,---,0.20,VWS V13.01,2013-07-01 03:10:00,
2013-06-30 23:12:00,70.0,68.5,29.77,SSE,149,0.0,0.0,95,0.01,,---,0.20,VWS V13.01,2013-07-01 03:12:00,
2013-06-30 23:13:00,70.0,68.5,29.77,SSE,149,0.0,0.0,95,0.01,,---,0.20,VWS V13.01,2013-07-01 03:13:00,
2013-06-30 23:14:00,70.0,68.5,29.77,SSE,149,0.0,0.0,95,0.01,,---,0.20,VWS V13.01,2013-07-01 03:14:00,
2013-06-30 23:15:00,70.0,68.8,29.77,SSE,150,0.0,0.0,96,0.01,,---,0.20,VWS V13.01,2013-07-01 03:15:00,
2013-06-30 23:18:00,70.0,68.8,29.77,SSE,150,0.0,0.0,96,0.01,,---,0.20,VWS V13.01,2013-07-01 03:18:00,
2013-06-30 23:19:00,70.0,68.8,29.77,SSE,150,0.0,0.0,96,0.01,,---,0.20,VWS V13.01,2013-07-01 03:19:00,
2013-06-30 23:20:00,70.0,68.8,29.77,SSE,150,0.0,0.0,96,0.01,,---,0.20,VWS V13.01,2013-07-01 03:20:00,
2013-06-30 23:23:00,70.0,68.8,29.77,SSE,150,0.0,0.0,96,0.01,,---,0.20,VWS V13.01,2013-07-01 03:23:00,
2013-06-30 23:24:00,70.0,68.8,29.77,SSE,149,0.0,0.0,96,0.01,,---,0.20,VWS V13.01,2013-07-01 03:24:00,
2013-06-30 23:25:00,70.0,68.8,29.77,SSE,150,0.0,0.0,96,0.01,,---,0.20,VWS V13.01,2013-07-01 03:25:00,
2013-06-30 23:28:00,69.9,68.7,29.77,SSE,149,0.0,0.0,96,0.01,,---,0.20,VWS V13.01,2013-07-01 03:28:00,
2013-06-30 23:29:00,70.0,68.8,29.77,SSE,149,0.0,0.0,96,0.01,,---,0.20,VWS V13.01,2013-07-01 03:29:00,
2013-06-30 23:30:00,70.0,68.8,29.77,SSE,149,0.0,0.0,96,0.01,,---,0.20,VWS V13.01,2013-07-01 03:30:00,
2013-06-30 23:33:00,69.9,68.7,29.77,SSE,150,0.0,0.0,96,0.01,,---,0.20,VWS V13.01,2013-07-01 03:33:00,
2013-06-30 23:34:00,69.9,68.7,29.77,SSE,149,0.0,0.0,96,0.01,,---,0.20,VWS V13.01,2013-07-01 03:34:00,
2013-06-30 23:35:00,69.9,68.7,29.77,SSE,150,0.0,0.0,96,0.01,,---,0.20,VWS V13.01,2013-07-01 03:35:00,
2013-06-30 23:36:00,69.9,68.7,29.77,SSE,149,0.0,0.0,96,0.01,,---,0.20,VWS V13.01,2013-07-01 03:36:00,
2013-06-30 23:39:00,69.9,68.7,29.78,SSE,150,0.0,0.0,96,0.01,,---,0.20,VWS V13.01,2013-07-01 03:39:00,
2013-06-30 23:40:00,69.9,68.7,29.78,SSE,150,0.0,0.0,96,0.01,,---,0.20,VWS V13.01,2013-07-01 03:40:00,
2013-06-30 23:41:00,69.9,68.7,29.77,SSE,150,0.0,0.0,96,0.01,,---,0.20,VWS V13.01,2013-07-01 03:41:00,
2013-06-30 23:44:00,69.9,68.7,29.78,SSE,150,0.0,0.0,96,0.01,,---,0.20,VWS V13.01,2013-07-01 03:44:00,
2013-06-30 23:45:00,69.9,68.7,29.78,SSE,150,0.0,0.0,96,0.01,,---,0.20,VWS V13.01,2013-07-01 03:45:00,
2013-06-30 23:46:00,69.9,68.7,29.78,SSE,150,0.0,0.0,96,0.01,,---,0.20,VWS V13.01,2013-07-01 03:46:00,
2013-06-30 23:49:00,69.9,68.7,29.78,SSE,150,0.0,0.0,96,0.01,,---,0.20,VWS V13.01,2013-07-01 03:49:00,
2013-06-30 23:50:00,69.9,68.7,29.78,SSE,150,0.0,0.0,96,0.01,,---,0.20,VWS V13.01,2013-07-01 03:50:00,
2013-06-30 23:52:00,69.9,68.7,29.78,SSE,150,0.0,0.0,96,0.01,,---,0.20,VWS V13.01,2013-07-01 03:52:00,
2013-06-30 23:54:00,69.9,68.7,29.78,SSE,150,0.0,0.0,96,0.01,,---,0.20,VWS V13.01,2013-07-01 03:54:00,
2013-06-30 23:55:00,69.9,68.7,29.78,SSE,150,0.0,0.0,96,0.01,,---,0.20,VWS V13.01,2013-07-01 03:55:00,
2013-06-30 23:57:00,69.9,68.7,29.78,SSE,149,0.0,0.0,96,0.01,,---,0.20,VWS V13.01,2013-07-01 03:57:00,
2013-06-30 23:59:00,69.9,68.7,29.78,SSE,150,0.0,0.0,96,0.01,,---,0.20,VWS V13.01,2013-07-01 03:59:00,